AFR610 EHAM-WIII

Flight info

Callsign AFR610
Flight time 12h 57m
Altitude 29000
Route ARNEM L620 BIRKA Z21 OMELO DCT EVIKU DCT ODNEM DCT ERGOM DCT DEGET/N0492F310 DCT RIXEN UL605 YAVRU UL615 ERZ UT309 VIRAN UW27 KAR UT165 REBLO M11 LUSAL N199 RASAM L88 METKA B143 TUNEK/N0491F330 B143 KRS B701 TUGTA A909 BABUM A477 AKRAM R226 MANAT/K0904F330 Z777 INDUD M875 AMDAR/N0491F330 M875 KHOLM DCT 3532N06818E 3425N06902E 3403N06952E DCT LAJAK L509 HANGU J139 NONIB L509 INDEK J121 AKBER T400 SULOM L509 ASARI J24 DPN L759 KKJ/N0493F350 W138 RRP W66 VVZ L301 DOGEM L510 GIVAL P628 VPL W531 VIH/N0493F370 A464 VKL Y507 MAKNA Y511 TOPOR A464 ARAMA P501 POSOG B469 BIDAK
Aircraft B77W/H-SDE1E2E3FGHIJ2J3J4J5M1RWXY/LB1D1

Departure

Time 2026-04-17 22:34
Airport Amsterdam Airport Schiphol (EHAM)

Arrival

Time 2026-04-18 11:31
Airport Soekarno-Hatta International Airport (WIII)
Time Latitude Longitude Altitude Speed Heading
2026-04-17 21:35 52.31327 4.76654 11 ft 0 kts 124°
2026-04-17 22:22 52.31333 4.76640 10 ft 4 kts 120°
2026-04-17 22:22 52.31344 4.76600 13 ft 4 kts 101°
2026-04-17 22:23 52.31345 4.76557 13 ft 4 kts 75°
2026-04-17 22:23 52.31334 4.76520 12 ft 4 kts 40°
2026-04-17 22:23 52.31328 4.76513 10 ft 8 kts 33°
2026-04-17 22:28 52.31329 4.76514 10 ft 1 kts 33°
2026-04-17 22:28 52.31353 4.76539 11 ft 7 kts 32°
2026-04-17 22:29 52.31406 4.76592 13 ft 14 kts 31°
2026-04-17 22:29 52.31437 4.76623 15 ft 0 kts 36°
2026-04-17 22:29 52.31448 4.76636 15 ft 3 kts 39°
2026-04-17 22:29 52.31461 4.76662 15 ft 3 kts 58°
2026-04-17 22:30 52.31472 4.76710 14 ft 6 kts 72°
2026-04-17 22:30 52.31478 4.76802 13 ft 10 kts 87°
2026-04-17 22:30 52.31483 4.76925 13 ft 12 kts 85°
2026-04-17 22:30 52.31487 4.77071 12 ft 14 kts 92°
2026-04-17 22:31 52.31445 4.77229 11 ft 16 kts 129°
2026-04-17 22:31 52.31366 4.77379 10 ft 18 kts 129°
2026-04-17 22:31 52.31267 4.77495 15 ft 18 kts 166°
2026-04-17 22:31 52.31142 4.77495 15 ft 18 kts 184°
2026-04-17 22:32 52.31016 4.77486 16 ft 18 kts 182°
2026-04-17 22:32 52.30891 4.77477 17 ft 18 kts 183°
2026-04-17 22:32 52.30765 4.77466 15 ft 18 kts 186°
2026-04-17 22:32 52.30642 4.77487 17 ft 18 kts 157°
2026-04-17 22:33 52.30530 4.77583 20 ft 18 kts 150°
2026-04-17 22:33 52.30414 4.77615 25 ft 18 kts 211°
2026-04-17 22:33 52.30343 4.77444 23 ft 18 kts 238°
2026-04-17 22:33 52.30219 4.77115 18 ft 68 kts 237°
2026-04-17 22:34 52.29812 4.76081 16 ft 148 kts 237°
2026-04-17 22:34 52.29113 4.74334 57 ft 215 kts 236°
2026-04-17 22:34 52.28313 4.72201 1006 ft 218 kts 239°
2026-04-17 22:34 52.27578 4.70100 2189 ft 210 kts 240°
2026-04-17 22:35 52.26817 4.67949 2372 ft 231 kts 231°
2026-04-17 22:35 52.25429 4.66575 2386 ft 246 kts 186°
2026-04-17 22:35 52.23649 4.67053 2378 ft 281 kts 153°
2026-04-17 22:35 52.22231 4.69313 2883 ft 291 kts 122°
2026-04-17 22:36 52.21519 4.72277 4091 ft 273 kts 108°
2026-04-17 22:36 52.20983 4.75331 4548 ft 287 kts 109°
2026-04-17 22:36 52.20437 4.78309 5175 ft 287 kts 109°
2026-04-17 22:36 52.19749 4.81322 5892 ft 283 kts 119°
2026-04-17 22:37 52.18737 4.84110 6385 ft 289 kts 128°
2026-04-17 22:37 52.17678 4.86902 6814 ft 294 kts 112°
2026-04-17 22:37 52.17352 4.90209 7097 ft 310 kts 84°
2026-04-17 22:37 52.17946 4.93573 7717 ft 302 kts 70°
2026-04-17 22:38 52.18708 4.96788 8217 ft 312 kts 70°
2026-04-17 22:38 52.19461 5.00102 8847 ft 311 kts 71°
2026-04-17 22:38 52.20172 5.03437 9516 ft 311 kts 72°
2026-04-17 22:38 52.20849 5.06798 10108 ft 314 kts 72°
2026-04-17 22:39 52.21513 5.10220 10537 ft 321 kts 73°
2026-04-17 22:39 52.22193 5.13800 10660 ft 340 kts 73°
2026-04-17 22:39 52.23647 5.21578 10978 ft 376 kts 73°
2026-04-17 22:40 52.24348 5.25729 11250 ft 383 kts 81°
2026-04-17 22:40 52.24368 5.30098 11491 ft 389 kts 98°
2026-04-17 22:40 52.24042 5.34512 12024 ft 394 kts 98°
2026-04-17 22:40 52.23759 5.38968 12753 ft 395 kts 97°
2026-04-17 22:41 52.23516 5.43448 13442 ft 398 kts 96°
2026-04-17 22:41 52.23286 5.47963 14032 ft 402 kts 96°
2026-04-17 22:41 52.23032 5.52516 14547 ft 403 kts 99°
2026-04-17 22:41 52.22304 5.56953 14912 ft 407 kts 113°
2026-04-17 22:42 52.21219 5.61179 15414 ft 411 kts 115°
2026-04-17 22:42 52.20092 5.65461 16006 ft 413 kts 115°
2026-04-17 22:42 52.18970 5.69799 16582 ft 417 kts 114°
2026-04-17 22:42 52.17862 5.74189 17114 ft 421 kts 114°
2026-04-17 22:43 52.16758 5.78635 17655 ft 425 kts 114°
2026-04-17 22:43 52.15653 5.83129 18170 ft 430 kts 114°
2026-04-17 22:43 52.14542 5.87661 18678 ft 433 kts 114°
2026-04-17 22:43 52.13417 5.92241 19129 ft 437 kts 114°
2026-04-17 22:44 52.12285 5.96844 19605 ft 440 kts 114°
2026-04-17 22:44 52.11162 6.01394 20072 ft 443 kts 114°
2026-04-17 22:44 52.10007 6.06058 20527 ft 446 kts 114°
2026-04-17 22:44 52.09047 6.10871 20939 ft 451 kts 104°
2026-04-17 22:45 52.08495 6.15925 21328 ft 456 kts 100°
2026-04-17 22:45 52.08050 6.21040 21777 ft 459 kts 99°
2026-04-17 22:45 52.07606 6.26201 22227 ft 462 kts 100°
2026-04-17 22:45 52.07131 6.31382 22669 ft 465 kts 101°
2026-04-17 22:46 52.06620 6.36598 23095 ft 468 kts 101°
2026-04-17 22:46 52.06083 6.41823 23515 ft 471 kts 101°
2026-04-17 22:46 52.05530 6.47073 23920 ft 473 kts 101°
2026-04-17 22:46 52.04970 6.52352 24270 ft 476 kts 101°
2026-04-17 22:47 52.04404 6.57661 24615 ft 478 kts 101°
2026-04-17 22:47 52.03835 6.63005 24964 ft 481 kts 101°
2026-04-17 22:47 52.03270 6.68303 25288 ft 483 kts 102°
2026-04-17 22:47 52.02691 6.73696 25623 ft 486 kts 102°
2026-04-17 22:48 52.02026 6.79088 25942 ft 487 kts 106°
2026-04-17 22:48 52.01178 6.84420 26252 ft 489 kts 107°
2026-04-17 22:48 52.00298 6.89768 26539 ft 492 kts 107°
2026-04-17 22:48 51.99420 6.95147 26831 ft 495 kts 107°
2026-04-17 22:49 51.98568 7.00446 27140 ft 497 kts 106°
2026-04-17 22:49 51.97697 7.05886 27450 ft 499 kts 107°
2026-04-17 22:49 51.96814 7.11338 27744 ft 501 kts 107°
2026-04-17 22:49 51.95869 7.16780 28027 ft 503 kts 108°
2026-04-17 22:50 51.94854 7.22244 28300 ft 505 kts 109°
2026-04-17 22:50 51.93819 7.27693 28575 ft 507 kts 109°
2026-04-17 22:50 51.92777 7.33167 28833 ft 509 kts 109°
2026-04-17 22:50 51.91738 7.38668 29039 ft 512 kts 109°
2026-04-17 22:51 51.90703 7.44190 29268 ft 514 kts 108°
2026-04-17 22:51 51.89663 7.49747 29486 ft 516 kts 108°
2026-04-17 22:51 51.88634 7.55245 29708 ft 518 kts 109°
2026-04-17 22:51 51.87585 7.60831 29954 ft 519 kts 109°
2026-04-17 22:52 51.86532 7.66413 30258 ft 518 kts 109°
2026-04-17 22:52 51.85505 7.71987 30542 ft 517 kts 106°
2026-04-17 22:52 51.84658 7.77637 30835 ft 516 kts 104°
2026-04-17 22:52 51.83858 7.83292 31094 ft 515 kts 104°
2026-04-17 22:53 51.82261 7.94655 31195 ft 520 kts 104°
2026-04-17 22:53 51.80628 8.05992 31202 ft 525 kts 104°
2026-04-17 22:54 51.78939 8.17521 31204 ft 529 kts 104°
2026-04-17 22:54 51.77231 8.29115 31202 ft 532 kts 104°
2026-04-17 22:55 51.75551 8.40746 31197 ft 533 kts 103°
2026-04-17 22:55 51.73953 8.52444 31209 ft 533 kts 103°
2026-04-17 22:56 51.72359 8.64106 31206 ft 531 kts 103°
2026-04-17 22:56 51.70744 8.75711 31203 ft 529 kts 102°
2026-04-17 22:57 51.69128 8.87161 31200 ft 527 kts 102°
2026-04-17 22:57 51.67482 8.98735 31195 ft 526 kts 103°
2026-04-17 22:58 51.65867 9.10015 31190 ft 525 kts 103°
2026-04-17 22:58 51.64215 9.21471 31189 ft 526 kts 103°
2026-04-17 22:59 51.62548 9.32944 31187 ft 526 kts 103°
2026-04-17 22:59 51.60869 9.44413 31202 ft 527 kts 103°
2026-04-17 23:00 51.59178 9.55891 31199 ft 528 kts 103°
2026-04-17 23:00 51.57470 9.67384 31209 ft 528 kts 103°
2026-04-17 23:01 51.55751 9.78870 31199 ft 528 kts 103°
2026-04-17 23:01 51.54022 9.90339 31185 ft 527 kts 103°
2026-04-17 23:02 51.52309 10.01623 31189 ft 526 kts 103°
2026-04-17 23:02 51.50567 10.13024 31189 ft 525 kts 103°
2026-04-17 23:03 51.48814 10.24403 31197 ft 525 kts 103°
2026-04-17 23:03 51.47054 10.35766 31200 ft 525 kts 103°
2026-04-17 23:04 51.45283 10.47126 31198 ft 525 kts 103°
2026-04-17 23:04 51.43488 10.58485 31200 ft 525 kts 103°
2026-04-17 23:05 51.41673 10.69818 31213 ft 526 kts 103°
2026-04-17 23:05 51.39862 10.81087 31202 ft 526 kts 103°
2026-04-17 23:06 51.38415 10.92520 31207 ft 523 kts 94°
2026-04-17 23:06 51.38185 11.03976 31209 ft 519 kts 84°
2026-04-17 23:07 51.38688 11.15496 31222 ft 519 kts 83°
2026-04-17 23:07 51.39161 11.27015 31221 ft 518 kts 84°
2026-04-17 23:08 51.39573 11.38548 31209 ft 518 kts 84°
2026-04-17 23:08 51.39969 11.50068 31217 ft 518 kts 84°
2026-04-17 23:09 51.40336 11.61581 31223 ft 518 kts 84°
2026-04-17 23:09 51.40692 11.73095 31221 ft 517 kts 84°
2026-04-17 23:10 51.41040 11.84605 31222 ft 517 kts 84°
2026-04-17 23:10 51.41379 11.96119 31229 ft 517 kts 84°
2026-04-17 23:11 51.41710 12.07513 31243 ft 517 kts 84°
2026-04-17 23:11 51.42043 12.19011 31246 ft 517 kts 84°
2026-04-17 23:12 51.42363 12.30518 31238 ft 517 kts 84°
2026-04-17 23:12 51.42671 12.41947 31236 ft 516 kts 84°
2026-04-17 23:13 51.42268 12.53421 31233 ft 522 kts 101°
2026-04-17 23:13 51.39555 12.64274 31222 ft 530 kts 120°
2026-04-17 23:14 51.35532 12.74187 31237 ft 532 kts 121°
2026-04-17 23:14 51.32217 12.82481 31231 ft 532 kts 120°
2026-04-17 23:15 51.28308 12.92517 31232 ft 533 kts 120°
2026-04-17 23:15 51.24428 13.02450 31245 ft 535 kts 119°
2026-04-17 23:16 51.20476 13.12523 31236 ft 536 kts 119°
2026-04-17 23:16 51.16513 13.22587 31243 ft 536 kts 120°
2026-04-17 23:17 51.12524 13.32625 31238 ft 536 kts 120°
2026-04-17 23:17 51.08527 13.42635 31247 ft 536 kts 120°
2026-04-17 23:18 51.04521 13.52631 31237 ft 536 kts 120°
2026-04-17 23:18 51.00516 13.62597 31232 ft 535 kts 120°
2026-04-17 23:19 50.96528 13.72562 31240 ft 535 kts 120°
2026-04-17 23:19 50.92486 13.82472 31239 ft 536 kts 123°
2026-04-17 23:20 50.87891 13.91787 31249 ft 537 kts 126°
2026-04-17 23:20 50.83219 14.00891 31242 ft 539 kts 130°
2026-04-17 23:21 50.77796 14.08983 31252 ft 540 kts 137°
2026-04-17 23:21 50.72185 14.16887 31271 ft 541 kts 136°
2026-04-17 23:22 50.66594 14.24860 31247 ft 542 kts 136°
2026-04-17 23:22 50.61013 14.32863 31238 ft 543 kts 136°
2026-04-17 23:23 50.55425 14.40849 31249 ft 543 kts 136°
2026-04-17 23:23 50.49827 14.48813 31244 ft 543 kts 136°
2026-04-17 23:24 50.44337 14.56935 31239 ft 541 kts 130°
2026-04-17 23:24 50.39283 14.65656 31229 ft 540 kts 129°
2026-04-17 23:25 50.34244 14.74379 31239 ft 540 kts 129°
2026-04-17 23:25 50.29184 14.83043 31239 ft 540 kts 130°
2026-04-17 23:26 50.24094 14.91686 31251 ft 540 kts 130°
2026-04-17 23:26 50.19040 15.00233 31240 ft 541 kts 130°
2026-04-17 23:27 50.13933 15.08847 31233 ft 541 kts 130°
2026-04-17 23:27 50.08819 15.17446 31232 ft 541 kts 130°
2026-04-17 23:28 50.03692 15.26037 31250 ft 542 kts 130°
2026-04-17 23:28 49.98558 15.34613 31240 ft 543 kts 130°
2026-04-17 23:29 49.93399 15.43200 31237 ft 544 kts 130°
2026-04-17 23:29 49.88261 15.51725 31225 ft 544 kts 130°
2026-04-17 23:30 49.83083 15.60286 31245 ft 545 kts 130°
2026-04-17 23:30 49.77886 15.68849 31229 ft 546 kts 130°
2026-04-17 23:31 49.72685 15.77392 31233 ft 546 kts 130°
2026-04-17 23:31 49.67470 15.85928 31227 ft 546 kts 130°
2026-04-17 23:32 49.62242 15.94457 31265 ft 546 kts 130°
2026-04-17 23:32 49.57074 16.02859 31232 ft 547 kts 130°
2026-04-17 23:33 49.51827 16.11363 31223 ft 547 kts 130°
2026-04-17 23:33 49.46578 16.19842 31227 ft 547 kts 130°
2026-04-17 23:34 49.41326 16.28296 31244 ft 547 kts 130°
2026-04-17 23:34 49.36056 16.36752 31233 ft 548 kts 130°
2026-04-17 23:35 49.30782 16.45186 31231 ft 548 kts 130°
2026-04-17 23:35 49.25531 16.53558 31227 ft 549 kts 130°
2026-04-17 23:36 49.20239 16.61965 31233 ft 548 kts 130°
2026-04-17 23:36 49.14931 16.70369 31217 ft 549 kts 130°
2026-04-17 23:37 49.09616 16.78760 31213 ft 550 kts 130°
2026-04-17 23:37 49.04291 16.87136 31213 ft 550 kts 130°
2026-04-17 23:38 48.98963 16.95491 31249 ft 551 kts 130°
2026-04-17 23:38 48.93659 17.03784 31207 ft 552 kts 130°
2026-04-17 23:39 48.88300 17.12135 31207 ft 552 kts 130°
2026-04-17 23:39 48.82923 17.20478 31200 ft 552 kts 130°
2026-04-17 23:40 48.77526 17.28780 31203 ft 553 kts 130°
2026-04-17 23:40 48.72117 17.37069 31200 ft 553 kts 130°
2026-04-17 23:41 48.66704 17.45345 31203 ft 553 kts 130°
2026-04-17 23:41 48.61288 17.53604 31179 ft 553 kts 130°
2026-04-17 23:42 48.55901 17.61792 31208 ft 553 kts 130°
2026-04-17 23:42 48.50469 17.70024 31192 ft 553 kts 130°
2026-04-17 23:43 48.45034 17.78232 31189 ft 553 kts 130°
2026-04-17 23:43 48.39603 17.86408 31187 ft 552 kts 130°
2026-04-17 23:44 48.34160 17.94574 31205 ft 552 kts 131°
2026-04-17 23:44 48.28780 18.02620 31180 ft 552 kts 131°
2026-04-17 23:45 48.20617 18.14782 31181 ft 551 kts 131°
2026-04-17 23:46 48.15166 18.22872 31199 ft 551 kts 131°
2026-04-17 23:46 48.09716 18.30934 31174 ft 550 kts 131°
2026-04-17 23:47 48.04279 18.38951 31169 ft 548 kts 131°
2026-04-17 23:47 47.98857 18.46923 31166 ft 547 kts 131°
2026-04-17 23:48 47.93425 18.54885 31207 ft 547 kts 131°
2026-04-17 23:48 47.88029 18.62771 31169 ft 546 kts 132°
2026-04-17 23:49 47.82611 18.70673 31163 ft 544 kts 131°
2026-04-17 23:49 47.77738 18.79164 31164 ft 537 kts 121°
2026-04-17 23:50 47.73360 18.88140 31199 ft 536 kts 122°
2026-04-17 23:50 47.68965 18.97076 31167 ft 535 kts 122°
2026-04-17 23:51 47.64583 19.05864 31152 ft 534 kts 122°
2026-04-17 23:51 47.60145 19.14699 31158 ft 534 kts 122°
2026-04-17 23:52 47.55710 19.23501 31165 ft 533 kts 123°
2026-04-17 23:52 47.51280 19.32271 31156 ft 530 kts 123°
2026-04-17 23:53 47.46866 19.40984 31154 ft 528 kts 123°
2026-04-17 23:53 47.42487 19.49602 31157 ft 527 kts 123°
2026-04-17 23:54 47.38079 19.58251 31155 ft 527 kts 124°
2026-04-17 23:54 47.33671 19.66873 31158 ft 527 kts 124°
2026-04-17 23:55 47.29253 19.75485 31157 ft 527 kts 124°
2026-04-17 23:55 47.24825 19.84089 31180 ft 527 kts 124°
2026-04-17 23:56 47.20390 19.92680 31162 ft 527 kts 124°
2026-04-17 23:56 47.16006 20.01147 31164 ft 527 kts 124°
2026-04-17 23:57 47.11560 20.09708 31164 ft 527 kts 124°
2026-04-17 23:57 47.07106 20.18257 31148 ft 527 kts 124°
2026-04-17 23:58 47.02644 20.26793 31150 ft 527 kts 125°
2026-04-17 23:58 46.98192 20.35285 31145 ft 527 kts 125°
2026-04-17 23:59 46.93719 20.43792 31144 ft 527 kts 125°
2026-04-17 23:59 46.89242 20.52279 31141 ft 527 kts 125°
2026-04-18 00:00 46.84765 20.60741 31140 ft 527 kts 125°
2026-04-18 00:00 46.80273 20.69206 31146 ft 527 kts 125°
2026-04-18 00:01 46.75773 20.77659 31158 ft 527 kts 125°
2026-04-18 00:01 46.71264 20.86103 31131 ft 528 kts 125°
2026-04-18 00:02 46.66750 20.94532 31133 ft 527 kts 125°
2026-04-18 00:02 46.62302 21.02812 31128 ft 527 kts 125°
2026-04-18 00:03 46.57777 21.11212 31138 ft 528 kts 126°
2026-04-18 00:03 46.53245 21.19601 31123 ft 528 kts 126°
2026-04-18 00:04 46.48707 21.27984 31119 ft 528 kts 125°
2026-04-18 00:04 46.45017 21.35036 31120 ft 527 kts 124°
2026-04-18 00:05 46.40649 21.43572 31127 ft 527 kts 124°
2026-04-18 00:05 46.36274 21.52091 31101 ft 527 kts 124°
2026-04-18 00:06 46.31870 21.60589 31110 ft 527 kts 124°
2026-04-18 00:06 46.27459 21.69051 31126 ft 527 kts 124°
2026-04-18 00:07 46.23037 21.77505 31106 ft 528 kts 125°
2026-04-18 00:07 46.18603 21.85962 31099 ft 528 kts 125°
2026-04-18 00:08 46.14161 21.94407 31103 ft 528 kts 125°
2026-04-18 00:08 46.09760 22.02753 31114 ft 528 kts 125°
2026-04-18 00:09 46.05334 22.11121 31102 ft 529 kts 125°
2026-04-18 00:09 46.00872 22.19532 31093 ft 528 kts 126°
2026-04-18 00:10 45.96433 22.27871 31104 ft 526 kts 126°
2026-04-18 00:10 45.91987 22.36201 31103 ft 524 kts 126°
2026-04-18 00:11 45.87548 22.44493 31098 ft 523 kts 126°
2026-04-18 00:11 45.83112 22.52754 31101 ft 522 kts 126°
2026-04-18 00:12 45.78677 22.60991 31101 ft 522 kts 126°
2026-04-18 00:12 45.74233 22.69220 31099 ft 523 kts 126°
2026-04-18 00:13 45.69776 22.77450 31105 ft 523 kts 126°
2026-04-18 00:13 45.65303 22.85686 31098 ft 525 kts 126°
2026-04-18 00:14 45.60816 22.93921 31094 ft 526 kts 126°
2026-04-18 00:14 45.56356 23.02082 31102 ft 526 kts 127°
2026-04-18 00:15 45.51873 23.10262 31088 ft 527 kts 127°
2026-04-18 00:15 45.47356 23.18483 31098 ft 527 kts 127°
2026-04-18 00:16 45.42833 23.26690 31083 ft 526 kts 127°
2026-04-18 00:16 45.38307 23.34876 31079 ft 525 kts 127°
2026-04-18 00:17 45.33788 23.43027 31067 ft 524 kts 127°
2026-04-18 00:17 45.29273 23.51149 31059 ft 523 kts 127°
2026-04-18 00:18 45.24763 23.59236 31066 ft 522 kts 127°
2026-04-18 00:18 45.20256 23.67297 31055 ft 521 kts 127°
2026-04-18 00:19 45.15749 23.75336 31064 ft 521 kts 128°
2026-04-18 00:19 45.11229 23.83374 31061 ft 522 kts 128°
2026-04-18 00:20 45.06700 23.91405 31055 ft 523 kts 128°
2026-04-18 00:20 45.02156 23.99441 31052 ft 523 kts 128°
2026-04-18 00:21 44.97648 24.07390 31045 ft 524 kts 128°
2026-04-18 00:21 44.93083 24.15416 31051 ft 524 kts 128°
2026-04-18 00:22 44.88510 24.23434 31044 ft 525 kts 128°
2026-04-18 00:22 44.83932 24.31440 31058 ft 525 kts 129°
2026-04-18 00:23 44.79341 24.39444 31047 ft 525 kts 129°
2026-04-18 00:23 44.74780 24.47373 31042 ft 525 kts 129°
2026-04-18 00:24 44.70183 24.55343 31045 ft 525 kts 129°
2026-04-18 00:24 44.65576 24.63309 31045 ft 525 kts 130°
2026-04-18 00:25 44.60968 24.71255 31048 ft 525 kts 130°
2026-04-18 00:25 44.56347 24.79201 31047 ft 526 kts 130°
2026-04-18 00:26 44.51712 24.87149 31039 ft 526 kts 130°
2026-04-18 00:26 44.47073 24.95080 31042 ft 526 kts 130°
2026-04-18 00:27 44.42470 25.02930 31047 ft 527 kts 131°
2026-04-18 00:27 44.37815 25.10846 31035 ft 527 kts 131°
2026-04-18 00:28 44.33156 25.18746 31046 ft 526 kts 131°
2026-04-18 00:28 44.28524 25.26580 31034 ft 527 kts 131°
2026-04-18 00:29 44.23857 25.34451 31040 ft 527 kts 131°
2026-04-18 00:29 44.19179 25.42320 31036 ft 527 kts 132°
2026-04-18 00:30 44.14494 25.50176 31039 ft 527 kts 132°
2026-04-18 00:30 44.09804 25.58021 31032 ft 527 kts 132°
2026-04-18 00:31 44.05108 25.65855 31023 ft 527 kts 133°
2026-04-18 00:31 44.00416 25.73661 31027 ft 526 kts 133°
2026-04-18 00:32 43.95729 25.81438 31008 ft 526 kts 133°
2026-04-18 00:32 43.91035 25.89205 31009 ft 525 kts 133°
2026-04-18 00:33 43.86339 25.96955 31025 ft 525 kts 133°
2026-04-18 00:33 43.81682 26.04617 31025 ft 525 kts 133°
2026-04-18 00:34 43.76979 26.12338 31021 ft 525 kts 133°
2026-04-18 00:34 43.72267 26.20050 31019 ft 525 kts 133°
2026-04-18 00:35 43.67551 26.27751 31030 ft 525 kts 133°
2026-04-18 00:35 43.62829 26.35439 31024 ft 525 kts 133°
2026-04-18 00:36 43.58140 26.43055 31014 ft 524 kts 134°
2026-04-18 00:36 43.53421 26.50698 31008 ft 522 kts 134°
2026-04-18 00:37 43.48708 26.58311 31008 ft 521 kts 134°
2026-04-18 00:37 43.44007 26.65886 30987 ft 520 kts 134°
2026-04-18 00:38 43.39304 26.73444 30998 ft 519 kts 134°
2026-04-18 00:38 43.34608 26.80969 30999 ft 518 kts 134°
2026-04-18 00:39 43.29913 26.88475 30999 ft 518 kts 134°
2026-04-18 00:39 43.25216 26.95964 30994 ft 517 kts 134°
2026-04-18 00:40 43.20597 27.03310 30990 ft 516 kts 134°
2026-04-18 00:40 43.15899 27.10765 30992 ft 516 kts 134°
2026-04-18 00:41 43.11205 27.18193 30987 ft 515 kts 134°
2026-04-18 00:41 43.06517 27.25591 30985 ft 514 kts 135°
2026-04-18 00:42 43.01864 27.32915 30970 ft 514 kts 135°
2026-04-18 00:42 42.97149 27.40320 30962 ft 513 kts 135°
2026-04-18 00:43 42.92469 27.47649 30967 ft 512 kts 135°
2026-04-18 00:43 42.87820 27.54916 30976 ft 511 kts 135°
2026-04-18 00:44 42.83138 27.62211 30944 ft 512 kts 135°
2026-04-18 00:44 42.78449 27.69500 30964 ft 511 kts 135°
2026-04-18 00:45 42.73765 27.76764 30962 ft 511 kts 135°
2026-04-18 00:45 42.69064 27.84035 30960 ft 511 kts 135°
2026-04-18 00:46 42.64363 27.91289 30944 ft 511 kts 135°
2026-04-18 00:46 42.59667 27.98518 30943 ft 511 kts 134°
2026-04-18 00:47 42.55028 28.05641 30947 ft 511 kts 134°
2026-04-18 00:47 42.50319 28.12854 30939 ft 510 kts 134°
2026-04-18 00:48 42.45610 28.20049 30929 ft 510 kts 134°
2026-04-18 00:48 42.40898 28.27231 30929 ft 510 kts 134°
2026-04-18 00:49 42.33819 28.37989 30939 ft 510 kts 134°
2026-04-18 00:49 42.29106 28.45129 30935 ft 509 kts 134°
2026-04-18 00:50 42.24394 28.52250 30923 ft 508 kts 134°
2026-04-18 00:50 42.19677 28.59362 30925 ft 508 kts 134°
2026-04-18 00:51 42.14985 28.66421 30923 ft 508 kts 134°
2026-04-18 00:51 42.10257 28.73518 30919 ft 509 kts 134°
2026-04-18 00:52 42.05957 28.81098 30913 ft 511 kts 124°
2026-04-18 00:52 42.02211 28.89223 30913 ft 511 kts 124°
2026-04-18 00:53 41.98459 28.97328 30911 ft 511 kts 124°
2026-04-18 00:53 41.95345 29.03974 30904 ft 511 kts 124°
2026-04-18 00:54 41.91534 29.12041 30901 ft 511 kts 124°
2026-04-18 00:54 41.87711 29.20105 30891 ft 512 kts 124°
2026-04-18 00:55 41.83874 29.28187 30901 ft 513 kts 124°
2026-04-18 00:55 41.80031 29.36252 30893 ft 513 kts 124°
2026-04-18 00:56 41.76187 29.44307 30884 ft 513 kts 123°
2026-04-18 00:56 41.72342 29.52346 30877 ft 512 kts 124°
2026-04-18 00:57 41.68503 29.60348 30881 ft 510 kts 124°
2026-04-18 00:57 41.64673 29.68311 30872 ft 508 kts 124°
2026-04-18 00:58 41.60872 29.76188 30869 ft 507 kts 125°
2026-04-18 00:58 41.57028 29.84132 30873 ft 506 kts 124°
2026-04-18 00:59 41.53206 29.92019 30878 ft 506 kts 125°
2026-04-18 00:59 41.49406 29.99836 30873 ft 506 kts 124°
2026-04-18 01:00 41.45647 30.07554 30882 ft 506 kts 124°
2026-04-18 01:00 41.41808 30.15409 30878 ft 506 kts 124°
2026-04-18 01:01 41.37963 30.23253 30871 ft 505 kts 124°
2026-04-18 01:01 41.34119 30.31081 30871 ft 504 kts 124°
2026-04-18 01:02 41.30279 30.38880 30867 ft 503 kts 124°
2026-04-18 01:02 41.26447 30.46644 30867 ft 501 kts 124°
2026-04-18 01:03 41.22625 30.54367 30865 ft 500 kts 124°
2026-04-18 01:03 41.18803 30.62069 30854 ft 500 kts 124°
2026-04-18 01:04 41.14999 30.69719 30855 ft 500 kts 124°
2026-04-18 01:04 41.11165 30.77410 30858 ft 500 kts 124°
2026-04-18 01:05 41.07326 30.85089 30859 ft 499 kts 124°
2026-04-18 01:05 41.03490 30.92748 30852 ft 498 kts 124°
2026-04-18 01:06 40.99691 31.00313 30852 ft 498 kts 124°
2026-04-18 01:06 40.95888 31.07968 30849 ft 498 kts 123°
2026-04-18 01:07 40.92104 31.15632 30845 ft 498 kts 123°
2026-04-18 01:07 40.88314 31.23283 30845 ft 497 kts 123°
2026-04-18 01:08 40.84516 31.30920 30837 ft 497 kts 123°
2026-04-18 01:08 40.80714 31.38539 30823 ft 497 kts 123°
2026-04-18 01:09 40.76910 31.46145 30827 ft 496 kts 123°
2026-04-18 01:09 40.73104 31.53738 30807 ft 497 kts 124°
2026-04-18 01:10 40.69290 31.61329 30787 ft 496 kts 124°
2026-04-18 01:10 40.65496 31.68861 30779 ft 496 kts 124°
2026-04-18 01:11 40.61675 31.76434 30770 ft 496 kts 124°
2026-04-18 01:11 40.58064 31.84143 30768 ft 495 kts 118°
2026-04-18 01:12 40.55418 31.92500 30766 ft 495 kts 111°
2026-04-18 01:12 40.53019 32.00877 30757 ft 494 kts 112°
2026-04-18 01:13 40.50543 32.09303 30751 ft 493 kts 112°
2026-04-18 01:13 40.48052 32.17700 30750 ft 493 kts 112°
2026-04-18 01:14 40.45757 32.26197 30743 ft 493 kts 109°
2026-04-18 01:14 40.43641 32.34681 30745 ft 492 kts 110°
2026-04-18 01:15 40.41506 32.43209 30744 ft 491 kts 110°
2026-04-18 01:15 40.39353 32.51703 30743 ft 490 kts 110°
2026-04-18 01:16 40.37190 32.60177 30738 ft 490 kts 111°
2026-04-18 01:16 40.35024 32.68635 30741 ft 489 kts 111°
2026-04-18 01:17 40.32854 32.77083 30745 ft 489 kts 111°
2026-04-18 01:17 40.30681 32.85515 30762 ft 489 kts 111°
2026-04-18 01:18 40.28502 32.93942 30769 ft 488 kts 111°
2026-04-18 01:18 40.26350 33.02242 30768 ft 488 kts 111°
2026-04-18 01:19 40.24316 33.10656 30772 ft 489 kts 106°
2026-04-18 01:19 40.23234 33.19463 30760 ft 491 kts 100°
2026-04-18 01:20 40.22406 33.28347 30766 ft 492 kts 100°
2026-04-18 01:20 40.21534 33.37245 30753 ft 493 kts 101°
2026-04-18 01:21 40.20633 33.46152 30755 ft 494 kts 101°
2026-04-18 01:21 40.19722 33.55072 30740 ft 496 kts 101°
2026-04-18 01:22 40.18801 33.64027 30754 ft 498 kts 101°
2026-04-18 01:22 40.17872 33.73008 30761 ft 500 kts 101°
2026-04-18 01:23 40.16934 33.82019 30752 ft 501 kts 101°
2026-04-18 01:23 40.15793 33.90996 30754 ft 499 kts 104°
2026-04-18 01:24 40.14526 33.99925 30747 ft 501 kts 102°
2026-04-18 01:24 40.13573 34.08826 30743 ft 502 kts 101°
2026-04-18 01:25 40.12668 34.17857 30740 ft 501 kts 101°
2026-04-18 01:25 40.11715 34.26881 30741 ft 501 kts 102°
2026-04-18 01:26 40.10726 34.35882 30749 ft 501 kts 102°
2026-04-18 01:26 40.09723 34.44885 30744 ft 501 kts 102°
2026-04-18 01:27 40.08721 34.53834 30732 ft 502 kts 103°
2026-04-18 01:27 40.07706 34.62856 30760 ft 502 kts 103°
2026-04-18 01:28 40.06683 34.71887 30760 ft 503 kts 103°
2026-04-18 01:28 40.05650 34.80937 30746 ft 504 kts 103°
2026-04-18 01:29 40.04610 34.89998 30754 ft 504 kts 104°
2026-04-18 01:29 40.03563 34.99044 30749 ft 504 kts 104°
2026-04-18 01:30 40.02525 35.07960 30760 ft 503 kts 104°
2026-04-18 01:30 40.01465 35.16986 30744 ft 503 kts 104°
2026-04-18 01:31 40.00404 35.25979 30745 ft 501 kts 105°
2026-04-18 01:31 39.99338 35.34950 30747 ft 500 kts 105°
2026-04-18 01:32 39.98242 35.43895 30739 ft 499 kts 106°
2026-04-18 01:32 39.97118 35.52763 30759 ft 499 kts 106°
2026-04-18 01:33 39.95985 35.61696 30755 ft 500 kts 106°
2026-04-18 01:33 39.94843 35.70670 30762 ft 502 kts 106°
2026-04-18 01:34 39.93693 35.79667 30758 ft 504 kts 106°
2026-04-18 01:34 39.92536 35.88682 30736 ft 506 kts 107°
2026-04-18 01:35 39.91358 35.97731 30775 ft 508 kts 107°
2026-04-18 01:35 39.90171 36.06705 30797 ft 509 kts 107°
2026-04-18 01:36 39.88958 36.15829 30788 ft 512 kts 108°
2026-04-18 01:36 39.87735 36.24994 30792 ft 515 kts 108°
2026-04-18 01:37 39.86424 36.34151 30811 ft 514 kts 110°
2026-04-18 01:37 39.85069 36.43305 30807 ft 517 kts 108°
2026-04-18 01:38 39.83878 36.52470 30795 ft 517 kts 108°
2026-04-18 01:38 39.82672 36.61667 30853 ft 515 kts 108°
2026-04-18 01:39 39.81431 36.70834 30884 ft 514 kts 108°
2026-04-18 01:39 39.80179 36.79981 30888 ft 514 kts 108°
2026-04-18 01:40 39.79250 36.89245 30874 ft 524 kts 101°
2026-04-18 01:40 39.79555 36.98813 30879 ft 535 kts 91°
2026-04-18 01:41 39.80425 37.08298 30879 ft 537 kts 91°
2026-04-18 01:41 39.81274 37.17940 30870 ft 537 kts 91°
2026-04-18 01:42 39.82062 37.27602 30870 ft 537 kts 92°
2026-04-18 01:42 39.82835 37.37274 30841 ft 537 kts 91°
2026-04-18 01:43 39.83603 37.46936 30849 ft 537 kts 91°
2026-04-18 01:43 39.84222 37.54969 30859 ft 536 kts 91°
2026-04-18 01:44 39.84954 37.64624 30860 ft 536 kts 92°
2026-04-18 01:44 39.85798 37.75839 30837 ft 535 kts 91°
2026-04-18 01:45 39.86516 37.85461 30844 ft 533 kts 91°
2026-04-18 01:45 39.87109 37.93508 30849 ft 532 kts 91°
2026-04-18 01:46 39.87793 38.02874 30854 ft 530 kts 91°
2026-04-18 01:46 39.88481 38.12423 30895 ft 529 kts 91°
2026-04-18 01:47 39.89161 38.21954 30878 ft 529 kts 91°
2026-04-18 01:47 39.89834 38.31497 30874 ft 530 kts 91°
2026-04-18 01:48 39.90497 38.41052 30872 ft 531 kts 91°
2026-04-18 01:48 39.91156 38.50608 30890 ft 529 kts 91°
2026-04-18 01:49 39.91806 38.60167 30888 ft 530 kts 91°
2026-04-18 01:49 39.92448 38.69724 30880 ft 530 kts 90°
2026-04-18 01:50 39.93085 38.79316 30893 ft 532 kts 90°
2026-04-18 01:50 39.93703 38.88888 30904 ft 534 kts 91°
2026-04-18 01:51 39.93931 38.98550 30903 ft 533 kts 94°
2026-04-18 01:51 39.94056 39.08058 30910 ft 535 kts 94°
2026-04-18 01:52 39.94224 39.17761 30906 ft 536 kts 93°
2026-04-18 01:52 39.94377 39.27459 30930 ft 536 kts 93°
2026-04-18 01:53 39.94520 39.37177 30915 ft 537 kts 93°
2026-04-18 01:54 39.94722 39.51776 30962 ft 537 kts 93°
2026-04-18 01:54 39.94844 39.61510 30946 ft 538 kts 93°
2026-04-18 01:55 39.94935 39.71271 30959 ft 539 kts 93°
2026-04-18 01:55 39.95013 39.81052 30926 ft 541 kts 94°
2026-04-18 01:56 39.95094 39.90843 30943 ft 541 kts 93°
2026-04-18 01:56 39.95178 40.00467 30939 ft 542 kts 93°
2026-04-18 01:57 39.95266 40.10286 30956 ft 543 kts 93°
2026-04-18 01:57 39.95344 40.20209 30961 ft 544 kts 93°
2026-04-18 01:58 39.95415 40.30021 30968 ft 546 kts 93°
2026-04-18 01:58 39.95477 40.39978 30967 ft 546 kts 93°
2026-04-18 01:59 39.95529 40.49816 30975 ft 546 kts 93°
2026-04-18 01:59 39.95574 40.59707 30997 ft 547 kts 93°
2026-04-18 02:00 39.95612 40.69626 30986 ft 548 kts 93°
2026-04-18 02:00 39.95644 40.79563 31015 ft 548 kts 93°
2026-04-18 02:01 39.95671 40.89512 31034 ft 549 kts 93°
2026-04-18 02:01 39.95690 40.99485 31048 ft 550 kts 93°
2026-04-18 02:02 39.95701 41.09366 31044 ft 551 kts 94°
2026-04-18 02:02 39.96247 41.19352 31055 ft 556 kts 82°
2026-04-18 02:03 39.98293 41.29117 31025 ft 562 kts 69°
2026-04-18 02:03 40.01417 41.38454 31042 ft 563 kts 67°
2026-04-18 02:04 40.04583 41.47810 31046 ft 564 kts 68°
2026-04-18 02:04 40.07672 41.57247 31027 ft 565 kts 68°
2026-04-18 02:05 40.10732 41.66696 31038 ft 565 kts 68°
2026-04-18 02:05 40.13793 41.76170 31032 ft 566 kts 68°
2026-04-18 02:06 40.16796 41.85599 31033 ft 566 kts 68°
2026-04-18 02:06 40.19810 41.95106 31050 ft 565 kts 68°
2026-04-18 02:07 40.22776 42.04479 31050 ft 565 kts 68°
2026-04-18 02:07 40.25782 42.14002 31050 ft 565 kts 68°
2026-04-18 02:08 40.28772 42.23504 31053 ft 565 kts 68°
2026-04-18 02:08 40.31755 42.33026 31062 ft 564 kts 68°
2026-04-18 02:09 40.34731 42.42555 31055 ft 565 kts 68°
2026-04-18 02:09 40.37698 42.52088 31082 ft 564 kts 68°
2026-04-18 02:10 40.40653 42.61618 31075 ft 564 kts 68°
2026-04-18 02:10 40.43600 42.71154 31088 ft 564 kts 68°
2026-04-18 02:11 40.46519 42.80630 31095 ft 563 kts 68°
2026-04-18 02:11 40.49484 42.90219 31105 ft 562 kts 67°
2026-04-18 02:12 40.52404 42.99667 31099 ft 561 kts 67°
2026-04-18 02:12 40.55355 43.09016 31098 ft 560 kts 64°
2026-04-18 02:13 40.59214 43.17856 31110 ft 555 kts 54°
2026-04-18 02:13 40.63499 43.26304 31112 ft 555 kts 54°
2026-04-18 02:14 40.67707 43.34823 31109 ft 554 kts 54°
2026-04-18 02:14 40.71859 43.43365 31108 ft 554 kts 55°
2026-04-18 02:15 40.76000 43.51921 31105 ft 553 kts 55°
2026-04-18 02:15 40.80137 43.60481 31111 ft 552 kts 55°
2026-04-18 02:15 40.81943 43.64960 31104 ft 556 kts 66°
2026-04-18 02:16 40.83142 43.69820 31104 ft 558 kts 76°
2026-04-18 02:16 40.83823 43.80006 31107 ft 560 kts 94°
2026-04-18 02:17 40.83250 43.90216 31095 ft 562 kts 94°
2026-04-18 02:17 40.82875 44.00428 31107 ft 564 kts 92°
2026-04-18 02:18 40.82556 44.10797 31074 ft 565 kts 92°
2026-04-18 02:18 40.82213 44.21166 31079 ft 566 kts 92°
2026-04-18 02:19 40.81841 44.31539 31071 ft 566 kts 92°
2026-04-18 02:19 40.81455 44.41916 31076 ft 566 kts 92°
2026-04-18 02:20 40.81061 44.52280 31073 ft 565 kts 92°
2026-04-18 02:20 40.80661 44.62615 31052 ft 564 kts 92°
2026-04-18 02:21 40.80254 44.72938 31058 ft 562 kts 92°
2026-04-18 02:21 40.79836 44.83220 31055 ft 561 kts 92°
2026-04-18 02:22 40.79411 44.93490 31071 ft 560 kts 92°
2026-04-18 02:22 40.78981 45.03628 31077 ft 560 kts 92°
2026-04-18 02:23 40.78539 45.13902 31071 ft 562 kts 92°
2026-04-18 02:23 40.78086 45.24207 31086 ft 562 kts 92°
2026-04-18 02:24 40.77625 45.34443 31093 ft 563 kts 92°
2026-04-18 02:24 40.77154 45.44759 31098 ft 563 kts 92°
2026-04-18 02:25 40.76534 45.55073 31093 ft 564 kts 95°
2026-04-18 02:25 40.75599 45.65352 31092 ft 564 kts 96°
2026-04-18 02:26 40.74619 45.75622 31110 ft 565 kts 96°
2026-04-18 02:26 40.73658 45.85915 31105 ft 565 kts 95°
2026-04-18 02:27 40.72709 45.96197 31107 ft 565 kts 95°
2026-04-18 02:27 40.71763 46.06368 31125 ft 565 kts 95°
2026-04-18 02:28 40.70801 46.16590 31129 ft 565 kts 96°
2026-04-18 02:28 40.69822 46.26855 31129 ft 565 kts 95°
2026-04-18 02:29 40.68835 46.37117 31126 ft 564 kts 95°
2026-04-18 02:29 40.67840 46.47371 31125 ft 564 kts 96°
2026-04-18 02:30 40.66837 46.57612 31137 ft 564 kts 96°
2026-04-18 02:30 40.65823 46.67859 31121 ft 564 kts 95°
2026-04-18 02:31 40.64802 46.78096 31122 ft 564 kts 95°
2026-04-18 02:31 40.63771 46.88333 31118 ft 564 kts 95°
2026-04-18 02:32 40.62730 46.98577 31115 ft 564 kts 95°
2026-04-18 02:32 40.61693 47.08692 31116 ft 564 kts 95°
2026-04-18 02:33 40.60672 47.18927 31127 ft 564 kts 93°
2026-04-18 02:33 40.60299 47.29142 31135 ft 562 kts 89°
2026-04-18 02:34 40.60067 47.39432 31125 ft 563 kts 89°
2026-04-18 02:34 40.59785 47.49731 31125 ft 563 kts 89°
2026-04-18 02:35 40.59461 47.60030 31122 ft 563 kts 90°
2026-04-18 02:35 40.59183 47.68596 31134 ft 564 kts 89°
2026-04-18 02:36 40.58844 47.78902 31119 ft 564 kts 89°
2026-04-18 02:36 40.58499 47.89221 31122 ft 564 kts 90°
2026-04-18 02:37 40.58344 47.99518 31123 ft 561 kts 84°
2026-04-18 02:37 40.58694 48.09668 31124 ft 561 kts 83°
2026-04-18 02:38 40.58993 48.19941 31123 ft 562 kts 84°
2026-04-18 02:38 40.59262 48.30227 31107 ft 562 kts 84°
2026-04-18 02:39 40.59531 48.40500 31125 ft 562 kts 84°
2026-04-18 02:39 40.59792 48.50785 31158 ft 562 kts 84°
2026-04-18 02:40 40.60046 48.61062 31120 ft 562 kts 84°
2026-04-18 02:40 40.60286 48.71353 31115 ft 562 kts 84°
2026-04-18 02:41 40.60520 48.81628 31105 ft 561 kts 84°
2026-04-18 02:41 40.60744 48.91897 31118 ft 561 kts 84°
2026-04-18 02:42 40.60958 49.02065 31095 ft 561 kts 83°
2026-04-18 02:42 40.61164 49.12331 31086 ft 561 kts 83°
2026-04-18 02:43 40.61383 49.22592 31071 ft 560 kts 82°
2026-04-18 02:43 40.61938 49.32786 31093 ft 557 kts 79°
2026-04-18 02:44 40.62618 49.42946 31079 ft 557 kts 79°
2026-04-18 02:44 40.63233 49.53066 31070 ft 558 kts 80°
2026-04-18 02:45 40.63794 49.63250 31069 ft 557 kts 80°
2026-04-18 02:45 40.64338 49.73430 31105 ft 557 kts 80°
2026-04-18 02:46 40.64879 49.83615 31090 ft 557 kts 80°
2026-04-18 02:46 40.65413 49.93776 31099 ft 557 kts 80°
2026-04-18 02:47 40.65927 50.03717 31098 ft 557 kts 81°
2026-04-18 02:47 40.66444 50.13896 31120 ft 556 kts 80°
2026-04-18 02:48 40.66950 50.24058 31107 ft 556 kts 80°
2026-04-18 02:48 40.67449 50.34224 31101 ft 556 kts 80°
2026-04-18 02:49 40.67939 50.44387 31107 ft 555 kts 80°
2026-04-18 02:49 40.68419 50.54551 31109 ft 555 kts 81°
2026-04-18 02:50 40.68891 50.64707 31117 ft 555 kts 81°
2026-04-18 02:50 40.69351 50.74785 31130 ft 555 kts 81°
2026-04-18 02:51 40.69806 50.84953 31118 ft 556 kts 81°
2026-04-18 02:51 40.70253 50.95127 31126 ft 556 kts 81°
2026-04-18 02:52 40.70684 51.05166 31123 ft 556 kts 81°
2026-04-18 02:52 40.71112 51.15349 31122 ft 556 kts 81°
2026-04-18 02:53 40.71532 51.25526 31126 ft 556 kts 81°
2026-04-18 02:53 40.71944 51.35717 31138 ft 556 kts 82°
2026-04-18 02:54 40.72013 51.45905 31120 ft 562 kts 92°
2026-04-18 02:54 40.70042 51.55926 31144 ft 570 kts 110°
2026-04-18 02:55 40.66306 51.65165 31142 ft 573 kts 118°
2026-04-18 02:55 40.62321 51.74262 31139 ft 574 kts 118°
2026-04-18 02:56 40.58404 51.83411 31140 ft 574 kts 117°
2026-04-18 02:56 40.52588 51.97214 31565 ft 575 kts 117°
2026-04-18 02:57 40.50725 52.01625 31764 ft 574 kts 117°
2026-04-18 02:57 40.48784 52.06205 31934 ft 574 kts 117°
2026-04-18 02:57 40.46840 52.10781 32129 ft 573 kts 117°
2026-04-18 02:57 40.44895 52.15351 32310 ft 573 kts 117°
2026-04-18 02:58 40.42954 52.19902 32516 ft 572 kts 117°
2026-04-18 02:58 40.41009 52.24456 32743 ft 571 kts 117°
2026-04-18 02:58 40.39068 52.28994 32975 ft 569 kts 117°
2026-04-18 02:58 40.37133 52.33514 33088 ft 568 kts 117°
2026-04-18 02:59 40.33272 52.42512 33163 ft 565 kts 117°
2026-04-18 02:59 40.29413 52.51483 33144 ft 566 kts 117°
2026-04-18 03:00 40.25476 52.60416 33146 ft 567 kts 121°
2026-04-18 03:00 40.21009 52.68940 33151 ft 569 kts 123°
2026-04-18 03:01 40.16480 52.77432 33158 ft 570 kts 123°
2026-04-18 03:01 40.11981 52.85974 33153 ft 571 kts 123°
2026-04-18 03:02 40.07513 52.94540 33156 ft 571 kts 119°
2026-04-18 03:02 40.04246 53.03780 33160 ft 564 kts 104°
2026-04-18 03:03 40.02567 53.13674 33166 ft 555 kts 91°
2026-04-18 03:03 40.01673 53.23672 33192 ft 556 kts 90°
2026-04-18 03:04 40.00748 53.33697 33171 ft 557 kts 91°
2026-04-18 03:04 39.99753 53.43669 33160 ft 558 kts 91°
2026-04-18 03:05 39.98721 53.53700 33158 ft 558 kts 92°
2026-04-18 03:05 39.97683 53.63714 33169 ft 557 kts 91°
2026-04-18 03:06 39.96644 53.73720 33164 ft 557 kts 91°
2026-04-18 03:06 39.95599 53.83712 33157 ft 556 kts 91°
2026-04-18 03:07 39.94546 53.93687 33155 ft 555 kts 91°
2026-04-18 03:07 39.93503 54.03483 33151 ft 554 kts 92°
2026-04-18 03:08 39.92437 54.13417 33155 ft 553 kts 92°
2026-04-18 03:08 39.91363 54.23338 33161 ft 552 kts 92°
2026-04-18 03:09 39.90283 54.33218 33165 ft 550 kts 92°
2026-04-18 03:09 39.89205 54.43003 33171 ft 550 kts 94°
2026-04-18 03:10 39.87436 54.52743 33158 ft 555 kts 102°
2026-04-18 03:10 39.85263 54.62384 33174 ft 555 kts 101°
2026-04-18 03:11 39.83313 54.72084 33165 ft 550 kts 96°
2026-04-18 03:11 39.82472 54.81856 33168 ft 539 kts 87°
2026-04-18 03:12 39.82717 54.91514 33178 ft 532 kts 82°
2026-04-18 03:12 39.83097 55.01024 33173 ft 533 kts 83°
2026-04-18 03:13 39.83393 55.10660 33189 ft 533 kts 84°
2026-04-18 03:13 39.83698 55.20298 33177 ft 533 kts 84°
2026-04-18 03:14 39.84002 55.29927 33171 ft 532 kts 84°
2026-04-18 03:14 39.84296 55.39554 33175 ft 532 kts 84°
2026-04-18 03:15 39.84581 55.49176 33183 ft 532 kts 85°
2026-04-18 03:15 39.84856 55.58792 33175 ft 531 kts 85°
2026-04-18 03:16 39.85124 55.68382 33176 ft 530 kts 85°
2026-04-18 03:16 39.85384 55.77967 33178 ft 530 kts 85°
2026-04-18 03:17 39.85635 55.87540 33178 ft 530 kts 85°
2026-04-18 03:17 39.85879 55.97126 33178 ft 530 kts 85°
2026-04-18 03:18 39.86111 56.06574 33177 ft 530 kts 85°
2026-04-18 03:18 39.86340 56.16165 33188 ft 530 kts 85°
2026-04-18 03:19 39.86562 56.25750 33181 ft 530 kts 86°
2026-04-18 03:19 39.86781 56.35325 33177 ft 528 kts 86°
2026-04-18 03:20 39.86996 56.44874 33180 ft 527 kts 86°
2026-04-18 03:20 39.87203 56.54411 33195 ft 527 kts 86°
2026-04-18 03:21 39.87401 56.63940 33179 ft 526 kts 87°
2026-04-18 03:21 39.87590 56.73470 33189 ft 526 kts 87°
2026-04-18 03:22 39.87772 56.82987 33187 ft 526 kts 87°
2026-04-18 03:22 39.87946 56.92508 33185 ft 526 kts 88°
2026-04-18 03:23 39.88082 57.00303 33180 ft 526 kts 88°
2026-04-18 03:23 39.88242 57.09818 33190 ft 525 kts 88°
2026-04-18 03:24 39.88394 57.19321 33186 ft 525 kts 88°
2026-04-18 03:24 39.88537 57.28811 33170 ft 524 kts 88°
2026-04-18 03:25 39.88673 57.38305 33197 ft 525 kts 88°
2026-04-18 03:25 39.88802 57.47807 33177 ft 525 kts 88°
2026-04-18 03:26 39.88922 57.57264 33179 ft 526 kts 89°
2026-04-18 03:26 39.89035 57.66788 33190 ft 526 kts 89°
2026-04-18 03:27 39.89141 57.76324 33180 ft 526 kts 89°
2026-04-18 03:27 39.89239 57.85852 33187 ft 526 kts 89°
2026-04-18 03:28 39.89329 57.95394 33178 ft 527 kts 89°
2026-04-18 03:28 39.89410 58.04833 33186 ft 527 kts 89°
2026-04-18 03:29 39.89486 58.14391 33185 ft 528 kts 89°
2026-04-18 03:29 39.89571 58.23895 33186 ft 528 kts 89°
2026-04-18 03:30 39.89677 58.33471 33182 ft 529 kts 89°
2026-04-18 03:30 39.89776 58.43038 33182 ft 528 kts 89°
2026-04-18 03:31 39.89862 58.52607 33181 ft 528 kts 90°
2026-04-18 03:31 39.89938 58.62175 33181 ft 528 kts 90°
2026-04-18 03:32 39.90007 58.71745 33183 ft 529 kts 90°
2026-04-18 03:32 39.90068 58.81319 33181 ft 529 kts 90°
2026-04-18 03:33 39.90122 58.90916 33193 ft 530 kts 90°
2026-04-18 03:33 39.90167 59.00400 33177 ft 530 kts 90°
2026-04-18 03:34 39.90205 59.09996 33180 ft 530 kts 90°
2026-04-18 03:34 39.90212 59.19600 33182 ft 530 kts 91°
2026-04-18 03:35 39.90206 59.29199 33194 ft 530 kts 91°
2026-04-18 03:35 39.90197 59.38808 33175 ft 531 kts 91°
2026-04-18 03:36 39.90158 59.48362 33188 ft 531 kts 91°
2026-04-18 03:36 39.90103 59.57986 33184 ft 531 kts 91°
2026-04-18 03:37 39.90044 59.67609 33194 ft 531 kts 92°
2026-04-18 03:37 39.89979 59.77231 33190 ft 532 kts 92°
2026-04-18 03:38 39.89906 59.86859 33192 ft 532 kts 92°
2026-04-18 03:38 39.89826 59.96493 33193 ft 532 kts 92°
2026-04-18 03:39 39.89738 60.06050 33198 ft 533 kts 92°
2026-04-18 03:39 39.89642 60.15721 33197 ft 534 kts 92°
2026-04-18 03:40 39.89495 60.25402 33196 ft 534 kts 96°
2026-04-18 03:40 39.88409 60.34920 33193 ft 530 kts 107°
2026-04-18 03:41 39.86544 60.44206 33206 ft 530 kts 108°
2026-04-18 03:41 39.84671 60.53500 33199 ft 532 kts 108°
2026-04-18 03:42 39.82835 60.62780 33203 ft 533 kts 108°
2026-04-18 03:42 39.80998 60.72143 33200 ft 535 kts 108°
2026-04-18 03:43 39.79151 60.81525 33197 ft 536 kts 108°
2026-04-18 03:43 39.77292 60.90912 33198 ft 537 kts 109°
2026-04-18 03:44 39.75436 61.00223 33210 ft 537 kts 109°
2026-04-18 03:44 39.73561 61.09592 33201 ft 539 kts 109°
2026-04-18 03:45 39.71666 61.19017 33212 ft 539 kts 109°
2026-04-18 03:45 39.69761 61.28448 33174 ft 540 kts 109°
2026-04-18 03:46 39.67849 61.37877 33201 ft 541 kts 110°
2026-04-18 03:46 39.65924 61.47317 33211 ft 541 kts 110°
2026-04-18 03:47 39.63989 61.56766 33214 ft 542 kts 110°
2026-04-18 03:47 39.62044 61.66223 33213 ft 543 kts 110°
2026-04-18 03:48 39.60090 61.75680 33213 ft 543 kts 110°
2026-04-18 03:48 39.58130 61.85129 33216 ft 543 kts 110°
2026-04-18 03:49 39.56162 61.94569 33203 ft 542 kts 110°
2026-04-18 03:49 39.54229 62.03799 33217 ft 542 kts 110°
2026-04-18 03:50 39.52248 62.13219 33201 ft 542 kts 111°
2026-04-18 03:50 39.50259 62.22639 33210 ft 542 kts 111°
2026-04-18 03:51 39.48263 62.32045 33214 ft 542 kts 111°
2026-04-18 03:51 39.46259 62.41451 33216 ft 542 kts 111°
2026-04-18 03:52 39.44246 62.50854 33215 ft 542 kts 111°
2026-04-18 03:52 39.42224 62.60262 33197 ft 542 kts 111°
2026-04-18 03:53 39.40197 62.69654 33206 ft 542 kts 111°
2026-04-18 03:53 39.38161 62.79045 33207 ft 543 kts 111°
2026-04-18 03:54 39.36116 62.88438 33201 ft 543 kts 111°
2026-04-18 03:54 39.34061 62.97834 33210 ft 544 kts 111°
2026-04-18 03:55 39.32022 63.07122 33201 ft 544 kts 111°
2026-04-18 03:55 39.29966 63.16448 33186 ft 544 kts 111°
2026-04-18 03:56 39.27887 63.25837 33207 ft 544 kts 111°
2026-04-18 03:56 39.25797 63.35231 33193 ft 545 kts 111°
2026-04-18 03:57 39.22649 63.49317 33181 ft 544 kts 111°
2026-04-18 03:58 39.20542 63.58693 33185 ft 544 kts 111°
2026-04-18 03:58 39.18428 63.68062 33187 ft 544 kts 112°
2026-04-18 03:59 39.16307 63.77425 33171 ft 544 kts 111°
2026-04-18 03:59 39.14179 63.86777 33167 ft 544 kts 112°
2026-04-18 04:00 39.12045 63.96122 33199 ft 544 kts 112°
2026-04-18 04:00 39.09928 64.05355 33185 ft 544 kts 112°
2026-04-18 04:01 39.07779 64.14688 33188 ft 544 kts 111°
2026-04-18 04:01 39.05741 64.24085 33184 ft 546 kts 110°
2026-04-18 04:02 39.03807 64.33459 33161 ft 546 kts 110°
2026-04-18 04:02 39.01842 64.42878 33176 ft 545 kts 110°
2026-04-18 04:03 38.99848 64.52277 33184 ft 546 kts 110°
2026-04-18 04:03 38.97835 64.61693 33182 ft 546 kts 110°
2026-04-18 04:04 38.95817 64.71105 33186 ft 546 kts 110°
2026-04-18 04:04 38.93792 64.80516 33158 ft 546 kts 111°
2026-04-18 04:05 38.91761 64.89913 33178 ft 546 kts 111°
2026-04-18 04:05 38.89726 64.99290 33183 ft 545 kts 111°
2026-04-18 04:06 38.87709 65.08545 33184 ft 546 kts 111°
2026-04-18 04:06 38.85648 65.17926 33188 ft 546 kts 111°
2026-04-18 04:07 38.83581 65.27289 33163 ft 546 kts 111°
2026-04-18 04:07 38.81507 65.36654 33188 ft 546 kts 111°
2026-04-18 04:08 38.79438 65.45962 33187 ft 546 kts 111°
2026-04-18 04:08 38.77347 65.55328 33183 ft 547 kts 111°
2026-04-18 04:09 38.75248 65.64693 33171 ft 547 kts 111°
2026-04-18 04:09 38.73139 65.74064 33161 ft 548 kts 111°
2026-04-18 04:10 38.71022 65.83429 33184 ft 547 kts 111°
2026-04-18 04:10 38.68899 65.92783 33184 ft 547 kts 111°
2026-04-18 04:11 38.66790 66.02043 33176 ft 548 kts 111°
2026-04-18 04:11 38.64653 66.11391 33177 ft 548 kts 111°
2026-04-18 04:12 38.62054 66.20427 33169 ft 532 kts 128°
2026-04-18 04:12 38.59917 66.24207 33188 ft 520 kts 139°
2026-04-18 04:12 38.57369 66.27422 33165 ft 510 kts 148°
2026-04-18 04:12 38.54490 66.29942 33175 ft 497 kts 156°
2026-04-18 04:13 38.51529 66.32218 33178 ft 499 kts 156°
2026-04-18 04:13 38.45590 66.36864 33175 ft 503 kts 156°
2026-04-18 04:14 38.39646 66.41617 33166 ft 505 kts 155°
2026-04-18 04:14 38.34701 66.45594 33163 ft 506 kts 155°
2026-04-18 04:15 38.28734 66.50386 33171 ft 507 kts 155°
2026-04-18 04:15 38.22757 66.55169 33160 ft 507 kts 155°
2026-04-18 04:16 38.16787 66.59936 33167 ft 506 kts 155°
2026-04-18 04:16 38.10856 66.64660 33165 ft 506 kts 155°
2026-04-18 04:17 38.04895 66.69402 33161 ft 505 kts 155°
2026-04-18 04:17 37.98944 66.74113 33184 ft 504 kts 155°
2026-04-18 04:18 37.92971 66.78764 33182 ft 503 kts 155°
2026-04-18 04:18 37.87000 66.83393 33165 ft 502 kts 155°
2026-04-18 04:19 37.81046 66.88010 33176 ft 502 kts 155°
2026-04-18 04:19 37.75091 66.92623 33186 ft 502 kts 155°
2026-04-18 04:20 37.69127 66.97236 33163 ft 503 kts 155°
2026-04-18 04:20 37.63250 67.01773 33182 ft 503 kts 155°
2026-04-18 04:21 37.57275 67.06377 33174 ft 503 kts 155°
2026-04-18 04:21 37.51332 67.10948 33136 ft 504 kts 155°
2026-04-18 04:22 37.45357 67.15535 33177 ft 503 kts 155°
2026-04-18 04:22 37.39377 67.20116 33183 ft 503 kts 155°
2026-04-18 04:23 37.33394 67.24692 33183 ft 503 kts 155°
2026-04-18 04:23 37.27406 67.29264 33180 ft 503 kts 155°
2026-04-18 04:24 37.21423 67.33823 33176 ft 504 kts 155°
2026-04-18 04:24 37.15371 67.38213 33175 ft 501 kts 158°
2026-04-18 04:25 37.09242 67.42397 33163 ft 501 kts 158°
2026-04-18 04:25 37.03119 67.46594 33162 ft 502 kts 158°
2026-04-18 04:26 36.97056 67.50790 33179 ft 502 kts 158°
2026-04-18 04:26 36.90937 67.55031 33145 ft 502 kts 158°
2026-04-18 04:27 36.84825 67.59256 33168 ft 502 kts 158°
2026-04-18 04:27 36.78705 67.63477 33173 ft 502 kts 158°
2026-04-18 04:28 36.72578 67.67690 33176 ft 502 kts 159°
2026-04-18 04:28 36.66287 67.71274 33185 ft 495 kts 165°
2026-04-18 04:29 36.59919 67.74570 33193 ft 497 kts 165°
2026-04-18 04:29 36.53533 67.77896 33177 ft 497 kts 164°
2026-04-18 04:30 36.47173 67.81233 33172 ft 495 kts 165°
2026-04-18 04:30 36.40836 67.84568 33176 ft 494 kts 165°
2026-04-18 04:31 36.34512 67.87897 33176 ft 493 kts 165°
2026-04-18 04:31 36.28190 67.91206 33175 ft 493 kts 165°
2026-04-18 04:32 36.21861 67.94511 33174 ft 494 kts 165°
2026-04-18 04:32 36.15532 67.97814 33179 ft 494 kts 165°
2026-04-18 04:33 36.09318 68.01052 33153 ft 494 kts 165°
2026-04-18 04:33 36.02983 68.04349 33169 ft 494 kts 165°
2026-04-18 04:34 35.96651 68.07638 33162 ft 494 kts 165°
2026-04-18 04:34 35.90295 68.10929 33162 ft 495 kts 165°
2026-04-18 04:35 35.83945 68.14215 33150 ft 495 kts 165°
2026-04-18 04:35 35.77592 68.17493 33169 ft 494 kts 165°
2026-04-18 04:36 35.71237 68.20771 33148 ft 495 kts 166°
2026-04-18 04:36 35.64927 68.24024 33136 ft 494 kts 166°
2026-04-18 04:37 35.58597 68.27285 33167 ft 492 kts 166°
2026-04-18 04:37 35.52266 68.30620 33130 ft 500 kts 162°
2026-04-18 04:38 35.46120 68.34680 33117 ft 502 kts 160°
2026-04-18 04:38 35.40000 68.38813 33155 ft 502 kts 160°
2026-04-18 04:39 35.33863 68.42922 33159 ft 504 kts 159°
2026-04-18 04:39 35.27711 68.47032 33150 ft 503 kts 160°
2026-04-18 04:40 35.21560 68.51081 33129 ft 501 kts 160°
2026-04-18 04:40 35.15477 68.55096 33141 ft 500 kts 160°
2026-04-18 04:41 35.09345 68.59133 33132 ft 501 kts 160°
2026-04-18 04:41 35.03203 68.63172 33140 ft 502 kts 160°
2026-04-18 04:42 34.97040 68.67224 33139 ft 504 kts 160°
2026-04-18 04:42 34.90856 68.71288 33135 ft 506 kts 160°
2026-04-18 04:43 34.84654 68.75351 33125 ft 506 kts 160°
2026-04-18 04:43 34.78447 68.79408 33110 ft 507 kts 160°
2026-04-18 04:44 34.72241 68.83475 33136 ft 506 kts 160°
2026-04-18 04:44 34.66024 68.87512 33122 ft 506 kts 160°
2026-04-18 04:45 34.59829 68.91535 33096 ft 503 kts 159°
2026-04-18 04:45 34.53667 68.95551 33092 ft 503 kts 160°
2026-04-18 04:46 34.47498 68.99542 33097 ft 503 kts 160°
2026-04-18 04:46 34.41907 69.04549 33084 ft 522 kts 141°
2026-04-18 04:46 34.39576 69.07977 33085 ft 534 kts 131°
2026-04-18 04:47 34.37693 69.11899 33106 ft 542 kts 124°
2026-04-18 04:47 34.34258 69.20085 33085 ft 548 kts 123°
2026-04-18 04:48 34.30775 69.28312 33092 ft 551 kts 124°
2026-04-18 04:48 34.27189 69.36536 33090 ft 553 kts 124°
2026-04-18 04:49 34.23570 69.44749 33103 ft 553 kts 124°
2026-04-18 04:49 34.19973 69.52906 33090 ft 546 kts 124°
2026-04-18 04:50 34.16406 69.60984 33102 ft 545 kts 124°
2026-04-18 04:50 34.12835 69.69055 33110 ft 546 kts 124°
2026-04-18 04:51 34.09247 69.77143 33111 ft 547 kts 124°
2026-04-18 04:51 34.05838 69.85378 33125 ft 552 kts 118°
2026-04-18 04:52 34.03474 69.94245 33083 ft 559 kts 107°
2026-04-18 04:52 34.01917 70.03220 33087 ft 557 kts 106°
2026-04-18 04:53 34.00304 70.12336 33084 ft 556 kts 107°
2026-04-18 04:53 33.98619 70.21476 33056 ft 554 kts 107°
2026-04-18 04:54 33.96948 70.30453 33114 ft 553 kts 107°
2026-04-18 04:54 33.95262 70.39509 33069 ft 555 kts 107°
2026-04-18 04:55 33.92890 70.48203 33098 ft 540 kts 123°
2026-04-18 04:55 33.88663 70.55512 33053 ft 525 kts 140°
2026-04-18 04:56 33.80710 70.64369 33083 ft 520 kts 143°
2026-04-18 04:56 33.75405 70.70310 33084 ft 522 kts 143°
2026-04-18 04:57 33.70121 70.76303 33047 ft 523 kts 142°
2026-04-18 04:57 33.64837 70.82294 33067 ft 522 kts 143°
2026-04-18 04:58 33.59550 70.88267 33073 ft 522 kts 143°
2026-04-18 04:58 33.54264 70.94230 33081 ft 522 kts 143°
2026-04-18 04:59 33.49925 71.01106 33045 ft 540 kts 116°
2026-04-18 04:59 33.48933 71.05473 33068 ft 549 kts 100°
2026-04-18 04:59 33.48916 71.10059 33071 ft 552 kts 87°
2026-04-18 05:00 33.49715 71.19228 33073 ft 554 kts 87°
2026-04-18 05:00 33.50392 71.28442 33057 ft 556 kts 88°
2026-04-18 05:01 33.50953 71.37630 33057 ft 557 kts 89°
2026-04-18 05:01 33.51516 71.46890 33059 ft 558 kts 88°
2026-04-18 05:02 33.52077 71.56159 33054 ft 558 kts 88°
2026-04-18 05:02 33.52627 71.65442 33060 ft 559 kts 88°
2026-04-18 05:03 33.53174 71.74756 33048 ft 561 kts 88°
2026-04-18 05:03 33.52899 71.83992 33051 ft 552 kts 106°
2026-04-18 05:04 33.50288 71.92513 33048 ft 540 kts 125°
2026-04-18 05:04 33.46211 71.99967 33044 ft 535 kts 128°
2026-04-18 05:05 33.42124 72.07309 33049 ft 537 kts 128°
2026-04-18 05:05 33.38723 72.13535 33034 ft 538 kts 127°
2026-04-18 05:06 33.34652 72.21064 33047 ft 539 kts 127°
2026-04-18 05:06 33.30575 72.28601 33046 ft 540 kts 127°
2026-04-18 05:07 33.26489 72.36134 33043 ft 540 kts 127°
2026-04-18 05:07 33.22401 72.43649 33042 ft 539 kts 127°
2026-04-18 05:08 33.18309 72.51149 33032 ft 539 kts 127°
2026-04-18 05:08 33.14231 72.58610 33039 ft 540 kts 127°
2026-04-18 05:09 33.10118 72.66121 33034 ft 541 kts 127°
2026-04-18 05:09 33.05990 72.73644 33029 ft 542 kts 127°
2026-04-18 05:10 33.01857 72.81161 33032 ft 543 kts 127°
2026-04-18 05:10 32.97714 72.88681 33017 ft 544 kts 127°
2026-04-18 05:11 32.93555 72.96217 33020 ft 545 kts 127°
2026-04-18 05:11 32.89430 73.03675 33009 ft 545 kts 127°
2026-04-18 05:12 32.85249 73.11220 33007 ft 546 kts 127°
2026-04-18 05:12 32.81068 73.18751 32979 ft 545 kts 127°
2026-04-18 05:13 32.76501 73.25879 32997 ft 538 kts 137°
2026-04-18 05:13 32.71056 73.31905 32967 ft 531 kts 147°
2026-04-18 05:14 32.65169 73.37174 32981 ft 530 kts 148°
2026-04-18 05:14 32.59277 73.42438 32981 ft 530 kts 148°
2026-04-18 05:15 32.53407 73.47737 32971 ft 530 kts 147°
2026-04-18 05:15 32.47555 73.53040 32970 ft 529 kts 147°
2026-04-18 05:16 32.41751 73.58291 32970 ft 529 kts 147°
2026-04-18 05:16 32.35905 73.63567 32966 ft 528 kts 147°
2026-04-18 05:17 32.30063 73.68826 32960 ft 527 kts 147°
2026-04-18 05:17 32.24225 73.74077 32963 ft 527 kts 147°
2026-04-18 05:18 32.18395 73.79311 32957 ft 527 kts 147°
2026-04-18 05:18 32.12557 73.84543 32960 ft 526 kts 147°
2026-04-18 05:19 32.06722 73.89763 32947 ft 527 kts 147°
2026-04-18 05:19 32.00884 73.94980 32948 ft 527 kts 147°
2026-04-18 05:20 31.95103 74.00137 32941 ft 528 kts 147°
2026-04-18 05:20 31.89297 74.05460 32933 ft 530 kts 145°
2026-04-18 05:21 31.83542 74.10882 32931 ft 531 kts 146°
2026-04-18 05:21 31.77737 74.16250 32927 ft 531 kts 146°
2026-04-18 05:22 31.71910 74.21605 32925 ft 532 kts 146°
2026-04-18 05:22 31.66123 74.26930 32918 ft 532 kts 146°
2026-04-18 05:23 31.60293 74.32294 32915 ft 532 kts 146°
2026-04-18 05:23 31.54455 74.37655 32909 ft 533 kts 146°
2026-04-18 05:24 31.48647 74.43053 32911 ft 534 kts 145°
2026-04-18 05:24 31.42922 74.48598 32912 ft 534 kts 144°
2026-04-18 05:25 31.37186 74.54129 32899 ft 534 kts 144°
2026-04-18 05:25 31.31574 74.59821 32908 ft 535 kts 141°
2026-04-18 05:26 31.26166 74.65814 32906 ft 536 kts 140°
2026-04-18 05:26 31.20770 74.71807 32899 ft 536 kts 140°
2026-04-18 05:27 31.15341 74.77783 32878 ft 536 kts 141°
2026-04-18 05:27 31.09903 74.83738 32884 ft 535 kts 141°
2026-04-18 05:28 31.04472 74.89676 32888 ft 535 kts 141°
2026-04-18 05:28 30.99076 74.95569 32887 ft 535 kts 141°
2026-04-18 05:29 30.93702 75.01429 32889 ft 535 kts 141°
2026-04-18 05:29 30.88263 75.07353 32872 ft 535 kts 141°
2026-04-18 05:30 30.82827 75.13264 32872 ft 535 kts 141°
2026-04-18 05:30 30.77159 75.18800 32884 ft 529 kts 148°
2026-04-18 05:31 30.71184 75.23787 32880 ft 529 kts 149°
2026-04-18 05:31 30.65189 75.28770 32859 ft 530 kts 149°
2026-04-18 05:32 30.59214 75.33786 32884 ft 530 kts 149°
2026-04-18 05:32 30.53244 75.38819 32871 ft 531 kts 149°
2026-04-18 05:33 30.47269 75.43850 32871 ft 531 kts 149°
2026-04-18 05:33 30.41292 75.48871 32879 ft 531 kts 149°
2026-04-18 05:34 30.35305 75.53890 32871 ft 531 kts 149°
2026-04-18 05:34 30.29360 75.58866 32886 ft 531 kts 149°
2026-04-18 05:35 30.23330 75.63906 32879 ft 531 kts 149°
2026-04-18 05:35 30.17344 75.68901 32851 ft 531 kts 149°
2026-04-18 05:36 30.11397 75.73857 32872 ft 530 kts 149°
2026-04-18 05:36 30.05419 75.78831 32863 ft 529 kts 149°
2026-04-18 05:37 29.99453 75.83787 32873 ft 529 kts 149°
2026-04-18 05:37 29.93488 75.88736 32870 ft 528 kts 149°
2026-04-18 05:38 29.87523 75.93677 32874 ft 527 kts 149°
2026-04-18 05:38 29.81567 75.98606 32877 ft 527 kts 149°
2026-04-18 05:39 29.75718 76.03529 32873 ft 527 kts 149°
2026-04-18 05:39 29.69823 76.08540 32878 ft 527 kts 149°
2026-04-18 05:40 29.63920 76.13542 32862 ft 526 kts 149°
2026-04-18 05:40 29.58018 76.18524 32873 ft 526 kts 149°
2026-04-18 05:41 29.52117 76.23492 32879 ft 526 kts 149°
2026-04-18 05:41 29.46216 76.28453 32880 ft 526 kts 149°
2026-04-18 05:42 29.40317 76.33407 32869 ft 526 kts 148°
2026-04-18 05:42 29.34412 76.38359 32882 ft 526 kts 148°
2026-04-18 05:43 29.28511 76.43300 32880 ft 526 kts 148°
2026-04-18 05:43 29.22640 76.48209 32880 ft 526 kts 149°
2026-04-18 05:44 29.16732 76.53141 32877 ft 526 kts 149°
2026-04-18 05:44 29.10820 76.58069 32876 ft 525 kts 148°
2026-04-18 05:45 29.04914 76.62987 32883 ft 525 kts 148°
2026-04-18 05:45 28.99008 76.67897 32882 ft 525 kts 148°
2026-04-18 05:46 28.93096 76.72805 32883 ft 526 kts 148°
2026-04-18 05:46 28.87174 76.77715 32868 ft 525 kts 148°
2026-04-18 05:47 28.81311 76.82701 32893 ft 527 kts 144°
2026-04-18 05:47 28.75977 76.88406 32892 ft 530 kts 140°
2026-04-18 05:48 28.70687 76.94255 32905 ft 530 kts 140°
2026-04-18 05:48 28.65359 77.00048 33135 ft 531 kts 141°
2026-04-18 05:49 28.62730 77.02888 33413 ft 528 kts 141°
2026-04-18 05:49 28.60071 77.05759 33787 ft 523 kts 141°
2026-04-18 05:49 28.57441 77.08588 34160 ft 517 kts 142°
2026-04-18 05:49 28.54715 77.11211 34443 ft 511 kts 147°
2026-04-18 05:50 28.51877 77.13616 34673 ft 508 kts 148°
2026-04-18 05:50 28.49028 77.15984 34825 ft 507 kts 149°
2026-04-18 05:50 28.43340 77.20702 34896 ft 504 kts 148°
2026-04-18 05:51 28.37704 77.25424 34888 ft 502 kts 148°
2026-04-18 05:51 28.32094 77.30146 34885 ft 501 kts 148°
2026-04-18 05:52 28.26537 77.34821 34875 ft 501 kts 148°
2026-04-18 05:52 28.20936 77.39525 34873 ft 501 kts 148°
2026-04-18 05:53 28.15327 77.44228 34870 ft 502 kts 148°
2026-04-18 05:53 28.09703 77.48937 34870 ft 503 kts 148°
2026-04-18 05:54 28.04072 77.53646 34856 ft 504 kts 149°
2026-04-18 05:54 27.98432 77.58356 34865 ft 504 kts 149°
2026-04-18 05:55 27.92782 77.63068 34861 ft 505 kts 149°
2026-04-18 05:55 27.87123 77.67784 34855 ft 506 kts 149°
2026-04-18 05:56 27.82411 77.71703 34856 ft 506 kts 149°
2026-04-18 05:56 27.76681 77.76309 34852 ft 503 kts 153°
2026-04-18 05:57 27.70504 77.79840 34861 ft 494 kts 164°
2026-04-18 05:57 27.67281 77.81108 34855 ft 489 kts 170°
2026-04-18 05:58 27.60706 77.82963 34860 ft 486 kts 172°
2026-04-18 05:58 27.54130 77.84775 34845 ft 487 kts 171°
2026-04-18 05:59 27.47553 77.86633 34845 ft 487 kts 171°
2026-04-18 05:59 27.40977 77.88511 34851 ft 488 kts 171°
2026-04-18 06:00 27.34399 77.90387 34847 ft 488 kts 171°
2026-04-18 06:00 27.27806 77.92262 34855 ft 488 kts 171°
2026-04-18 06:01 27.21216 77.94137 34842 ft 489 kts 171°
2026-04-18 06:01 27.14823 77.96954 34842 ft 500 kts 157°
2026-04-18 06:02 27.09045 78.01224 34847 ft 508 kts 148°
2026-04-18 06:02 27.03510 78.06069 34844 ft 509 kts 147°
2026-04-18 06:03 26.97924 78.10960 34835 ft 509 kts 147°
2026-04-18 06:03 26.92312 78.15802 34832 ft 509 kts 148°
2026-04-18 06:04 26.86697 78.20610 34833 ft 508 kts 148°
2026-04-18 06:04 26.81075 78.25414 34827 ft 508 kts 148°
2026-04-18 06:05 26.75463 78.30208 34825 ft 507 kts 148°
2026-04-18 06:05 26.69854 78.34995 34826 ft 507 kts 148°
2026-04-18 06:06 26.64255 78.39768 34824 ft 506 kts 148°
2026-04-18 06:06 26.58662 78.44529 34830 ft 505 kts 148°
2026-04-18 06:07 26.53066 78.49286 34829 ft 504 kts 148°
2026-04-18 06:07 26.47481 78.54029 34830 ft 504 kts 148°
2026-04-18 06:08 26.41930 78.58737 34828 ft 504 kts 148°
2026-04-18 06:08 26.36345 78.63468 34833 ft 504 kts 147°
2026-04-18 06:09 26.30726 78.68222 34819 ft 504 kts 147°
2026-04-18 06:09 26.25144 78.72939 34837 ft 504 kts 148°
2026-04-18 06:10 26.19596 78.77623 34833 ft 504 kts 148°
2026-04-18 06:10 26.14003 78.82335 34834 ft 504 kts 148°
2026-04-18 06:11 26.08370 78.87000 34823 ft 505 kts 148°
2026-04-18 06:11 26.02712 78.91648 34829 ft 506 kts 148°
2026-04-18 06:12 25.97056 78.96299 34827 ft 507 kts 148°
2026-04-18 06:12 25.91467 79.00898 34823 ft 508 kts 148°
2026-04-18 06:13 25.85787 79.05569 34828 ft 508 kts 148°
2026-04-18 06:13 25.80094 79.10246 34820 ft 510 kts 148°
2026-04-18 06:14 25.74387 79.14927 34828 ft 511 kts 148°
2026-04-18 06:14 25.68659 79.19619 34828 ft 512 kts 149°
2026-04-18 06:15 25.62921 79.24313 34824 ft 513 kts 149°
2026-04-18 06:15 25.57168 79.29015 34825 ft 514 kts 149°
2026-04-18 06:16 25.51445 79.33687 34815 ft 514 kts 149°
2026-04-18 06:16 25.45681 79.38386 34831 ft 515 kts 149°
2026-04-18 06:17 25.39907 79.43088 34825 ft 515 kts 149°
2026-04-18 06:17 25.34130 79.47786 34829 ft 516 kts 149°
2026-04-18 06:18 25.28347 79.52484 34830 ft 516 kts 149°
2026-04-18 06:18 25.22569 79.57171 34826 ft 515 kts 150°
2026-04-18 06:19 25.16806 79.61843 34830 ft 513 kts 150°
2026-04-18 06:19 25.11060 79.66494 34833 ft 512 kts 150°
2026-04-18 06:20 25.05322 79.71133 34835 ft 511 kts 150°
2026-04-18 06:20 24.99586 79.75763 34833 ft 511 kts 150°
2026-04-18 06:21 24.93859 79.80383 34827 ft 511 kts 150°
2026-04-18 06:21 24.88116 79.85009 34835 ft 512 kts 150°
2026-04-18 06:22 24.82362 79.89633 34833 ft 512 kts 152°
2026-04-18 06:22 24.76284 79.93531 34827 ft 501 kts 162°
2026-04-18 06:23 24.70003 79.96731 34834 ft 501 kts 162°
2026-04-18 06:23 24.63669 79.99962 34836 ft 502 kts 162°
2026-04-18 06:24 24.57414 80.03192 34822 ft 503 kts 162°
2026-04-18 06:24 24.51077 80.06483 34838 ft 504 kts 162°
2026-04-18 06:25 24.44734 80.09775 34840 ft 504 kts 162°
2026-04-18 06:25 24.38393 80.13060 34830 ft 504 kts 162°
2026-04-18 06:26 24.32047 80.16343 34845 ft 503 kts 162°
2026-04-18 06:26 24.25710 80.19617 34848 ft 504 kts 162°
2026-04-18 06:27 24.19362 80.22892 34850 ft 504 kts 162°
2026-04-18 06:27 24.13019 80.26162 34854 ft 504 kts 162°
2026-04-18 06:28 24.06706 80.29413 34851 ft 504 kts 162°
2026-04-18 06:28 24.00370 80.32674 34860 ft 502 kts 162°
2026-04-18 06:29 23.94054 80.35919 34869 ft 501 kts 162°
2026-04-18 06:29 23.87745 80.39158 34867 ft 500 kts 162°
2026-04-18 06:30 23.81447 80.42386 34877 ft 499 kts 162°
2026-04-18 06:30 23.75160 80.45605 34861 ft 499 kts 162°
2026-04-18 06:31 23.68867 80.48825 34866 ft 499 kts 161°
2026-04-18 06:31 23.62578 80.52039 34866 ft 499 kts 162°
2026-04-18 06:32 23.56281 80.55253 34864 ft 501 kts 161°
2026-04-18 06:32 23.49961 80.58476 34881 ft 502 kts 161°
2026-04-18 06:33 23.43673 80.61679 34863 ft 503 kts 161°
2026-04-18 06:33 23.37325 80.64910 34876 ft 504 kts 161°
2026-04-18 06:34 23.30972 80.68141 34873 ft 505 kts 161°
2026-04-18 06:34 23.24602 80.71376 34878 ft 505 kts 161°
2026-04-18 06:35 23.18235 80.74608 34882 ft 505 kts 161°
2026-04-18 06:35 23.11872 80.77827 34874 ft 504 kts 161°
2026-04-18 06:36 23.05512 80.81016 34878 ft 503 kts 161°
2026-04-18 06:36 22.99175 80.84187 34884 ft 502 kts 162°
2026-04-18 06:37 22.92845 80.87355 34897 ft 501 kts 161°
2026-04-18 06:37 22.86510 80.90522 34892 ft 501 kts 161°
2026-04-18 06:38 22.80176 80.93688 34890 ft 502 kts 161°
2026-04-18 06:38 22.73821 80.96859 34902 ft 503 kts 161°
2026-04-18 06:39 22.67471 81.00026 34904 ft 505 kts 161°
2026-04-18 06:39 22.61151 81.03175 34907 ft 506 kts 161°
2026-04-18 06:40 22.54742 81.06366 34919 ft 508 kts 161°
2026-04-18 06:40 22.48321 81.09558 34904 ft 509 kts 161°
2026-04-18 06:41 22.41884 81.12756 34911 ft 509 kts 161°
2026-04-18 06:41 22.35478 81.15935 34906 ft 510 kts 161°
2026-04-18 06:42 22.28982 81.19156 34895 ft 510 kts 161°
2026-04-18 06:42 22.22581 81.22327 34898 ft 509 kts 161°
2026-04-18 06:43 22.16136 81.25516 34881 ft 509 kts 161°
2026-04-18 06:43 22.09691 81.28702 34877 ft 510 kts 161°
2026-04-18 06:44 22.03251 81.31915 34871 ft 510 kts 161°
2026-04-18 06:44 21.96819 81.35146 34872 ft 511 kts 161°
2026-04-18 06:45 21.91409 81.37861 34867 ft 511 kts 161°
2026-04-18 06:45 21.84997 81.41070 34863 ft 511 kts 161°
2026-04-18 06:46 21.78540 81.44297 34854 ft 512 kts 161°
2026-04-18 06:46 21.72080 81.47522 34859 ft 512 kts 161°
2026-04-18 06:47 21.65612 81.50747 34859 ft 512 kts 161°
2026-04-18 06:47 21.59150 81.53967 34862 ft 512 kts 161°
2026-04-18 06:48 21.52682 81.57187 34855 ft 512 kts 161°
2026-04-18 06:48 21.46212 81.60404 34859 ft 512 kts 161°
2026-04-18 06:49 21.39747 81.63616 34857 ft 512 kts 161°
2026-04-18 06:49 21.33277 81.66827 34855 ft 513 kts 161°
2026-04-18 06:50 21.26791 81.70043 34856 ft 514 kts 161°
2026-04-18 06:50 21.20348 81.73236 34860 ft 514 kts 161°
2026-04-18 06:51 21.13827 81.76363 34855 ft 512 kts 163°
2026-04-18 06:51 21.07232 81.79230 34864 ft 511 kts 163°
2026-04-18 06:52 21.00635 81.82084 34863 ft 512 kts 163°
2026-04-18 06:52 20.94055 81.84978 34861 ft 512 kts 163°
2026-04-18 06:53 20.87479 81.87887 34881 ft 511 kts 163°
2026-04-18 06:53 20.80906 81.90788 34872 ft 511 kts 163°
2026-04-18 06:54 20.74331 81.93685 34878 ft 511 kts 163°
2026-04-18 06:54 20.67758 81.96561 34867 ft 511 kts 163°
2026-04-18 06:55 20.61172 81.99399 34868 ft 510 kts 163°
2026-04-18 06:55 20.54669 82.02193 34873 ft 511 kts 163°
2026-04-18 06:56 20.48081 82.05028 34872 ft 511 kts 163°
2026-04-18 06:56 20.41478 82.07871 34885 ft 512 kts 163°
2026-04-18 06:57 20.34873 82.10714 34875 ft 512 kts 163°
2026-04-18 06:57 20.24945 82.14980 34874 ft 513 kts 163°
2026-04-18 06:58 20.18330 82.17820 34875 ft 512 kts 163°
2026-04-18 06:58 20.11763 82.20636 34889 ft 512 kts 163°
2026-04-18 06:59 20.05158 82.23466 34889 ft 512 kts 163°
2026-04-18 06:59 19.98555 82.26292 34884 ft 512 kts 163°
2026-04-18 07:00 19.91952 82.29116 34888 ft 512 kts 163°
2026-04-18 07:00 19.85348 82.31938 34897 ft 512 kts 163°
2026-04-18 07:01 19.78738 82.34759 34896 ft 512 kts 163°
2026-04-18 07:01 19.72128 82.37578 34910 ft 512 kts 163°
2026-04-18 07:02 19.65513 82.40397 34897 ft 512 kts 163°
2026-04-18 07:02 19.58895 82.43214 34902 ft 513 kts 163°
2026-04-18 07:03 19.52267 82.46034 34909 ft 513 kts 163°
2026-04-18 07:03 19.45632 82.48853 34924 ft 514 kts 163°
2026-04-18 07:04 19.38990 82.51674 34923 ft 514 kts 163°
2026-04-18 07:04 19.32342 82.54494 34933 ft 515 kts 163°
2026-04-18 07:05 19.25692 82.57313 34929 ft 515 kts 163°
2026-04-18 07:05 19.19045 82.60128 34946 ft 515 kts 163°
2026-04-18 07:06 19.12399 82.62940 34947 ft 514 kts 163°
2026-04-18 07:06 19.05757 82.65748 34954 ft 514 kts 163°
2026-04-18 07:07 18.99165 82.68533 34958 ft 514 kts 163°
2026-04-18 07:07 18.92485 82.71353 34960 ft 513 kts 162°
2026-04-18 07:08 18.85897 82.74130 34966 ft 514 kts 162°
2026-04-18 07:08 18.79259 82.76927 34977 ft 514 kts 162°
2026-04-18 07:09 18.72616 82.79725 34992 ft 514 kts 163°
2026-04-18 07:09 18.65967 82.82532 34984 ft 515 kts 162°
2026-04-18 07:10 18.59340 82.85403 34985 ft 515 kts 162°
2026-04-18 07:10 18.52724 82.88289 34981 ft 515 kts 162°
2026-04-18 07:11 18.46099 82.91168 34976 ft 515 kts 162°
2026-04-18 07:11 18.39478 82.94035 34977 ft 514 kts 162°
2026-04-18 07:12 18.32870 82.96892 34984 ft 513 kts 162°
2026-04-18 07:12 18.26253 82.99750 34961 ft 515 kts 162°
2026-04-18 07:13 18.19683 83.02587 34944 ft 516 kts 162°
2026-04-18 07:13 18.13031 83.05458 34913 ft 518 kts 162°
2026-04-18 07:14 18.06364 83.08331 34923 ft 518 kts 162°
2026-04-18 07:14 17.99698 83.11202 34893 ft 518 kts 162°
2026-04-18 07:15 17.93017 83.14079 34881 ft 519 kts 162°
2026-04-18 07:15 17.86342 83.16950 34852 ft 519 kts 162°
2026-04-18 07:16 17.79703 83.19803 34860 ft 519 kts 162°
2026-04-18 07:16 17.73024 83.22675 34855 ft 517 kts 161°
2026-04-18 07:17 17.69876 83.24543 34849 ft 525 kts 145°
2026-04-18 07:17 17.67296 83.27285 34877 ft 534 kts 129°
2026-04-18 07:17 17.65404 83.30657 34844 ft 541 kts 114°
2026-04-18 07:17 17.64342 83.34437 34883 ft 541 kts 105°
2026-04-18 07:18 17.62586 83.42128 34876 ft 544 kts 105°
2026-04-18 07:18 17.60733 83.49826 34869 ft 546 kts 107°
2026-04-18 07:19 17.58790 83.57527 34871 ft 547 kts 107°
2026-04-18 07:19 17.56828 83.65227 34867 ft 547 kts 107°
2026-04-18 07:20 17.54874 83.72919 34870 ft 546 kts 107°
2026-04-18 07:20 17.52923 83.80606 34866 ft 546 kts 107°
2026-04-18 07:21 17.50971 83.88287 34866 ft 545 kts 107°
2026-04-18 07:21 17.49034 83.95955 34863 ft 544 kts 106°
2026-04-18 07:22 17.47185 84.03549 34864 ft 544 kts 106°
2026-04-18 07:22 17.45327 84.11217 34865 ft 543 kts 106°
2026-04-18 07:23 17.43456 84.18878 34865 ft 543 kts 106°
2026-04-18 07:23 17.41589 84.26481 34866 ft 543 kts 106°
2026-04-18 07:24 17.39707 84.34136 34864 ft 543 kts 106°
2026-04-18 07:24 17.37824 84.41786 34865 ft 543 kts 106°
2026-04-18 07:25 17.35936 84.49447 34877 ft 543 kts 106°
2026-04-18 07:25 17.34100 84.57118 34869 ft 544 kts 105°
2026-04-18 07:26 17.32318 84.64812 34860 ft 544 kts 105°
2026-04-18 07:26 17.30528 84.72510 34859 ft 544 kts 105°
2026-04-18 07:27 17.28723 84.80199 34871 ft 544 kts 105°
2026-04-18 07:27 17.26922 84.87843 34872 ft 545 kts 105°
2026-04-18 07:28 17.25105 84.95545 34871 ft 545 kts 105°
2026-04-18 07:28 17.23311 85.03141 34867 ft 545 kts 105°
2026-04-18 07:29 17.21490 85.10837 34871 ft 545 kts 105°
2026-04-18 07:29 17.19666 85.18534 34871 ft 545 kts 105°
2026-04-18 07:30 17.17717 85.26191 34861 ft 543 kts 112°
2026-04-18 07:30 17.14300 85.33164 34879 ft 537 kts 127°
2026-04-18 07:31 17.09544 85.39108 34886 ft 532 kts 136°
2026-04-18 07:31 17.04456 85.44745 34869 ft 533 kts 136°
2026-04-18 07:32 16.99391 85.50404 34871 ft 534 kts 135°
2026-04-18 07:32 16.94350 85.56113 34875 ft 535 kts 135°
2026-04-18 07:33 16.90162 85.60876 34871 ft 535 kts 135°
2026-04-18 07:33 16.85126 85.66600 34874 ft 535 kts 135°
2026-04-18 07:34 16.79266 85.73247 34877 ft 535 kts 135°
2026-04-18 07:34 16.74218 85.78963 34878 ft 535 kts 135°
2026-04-18 07:35 16.69990 85.83747 34879 ft 535 kts 135°
2026-04-18 07:35 16.64939 85.89459 34868 ft 535 kts 135°
2026-04-18 07:36 16.59894 85.95159 34881 ft 535 kts 135°
2026-04-18 07:36 16.54908 86.00788 34874 ft 534 kts 135°
2026-04-18 07:37 16.49864 86.06478 34881 ft 534 kts 135°
2026-04-18 07:37 16.44823 86.12159 34883 ft 534 kts 135°
2026-04-18 07:38 16.39784 86.17834 34879 ft 534 kts 135°
2026-04-18 07:38 16.34740 86.23509 34878 ft 534 kts 135°
2026-04-18 07:39 16.29696 86.29181 34882 ft 534 kts 135°
2026-04-18 07:39 16.24685 86.34811 34885 ft 534 kts 135°
2026-04-18 07:40 16.19636 86.40478 34884 ft 534 kts 135°
2026-04-18 07:40 16.14589 86.46139 34886 ft 534 kts 135°
2026-04-18 07:41 16.09537 86.51800 34887 ft 534 kts 135°
2026-04-18 07:41 16.04488 86.57454 34889 ft 534 kts 135°
2026-04-18 07:42 15.99433 86.63110 34889 ft 534 kts 135°
2026-04-18 07:42 15.94376 86.68764 34888 ft 534 kts 135°
2026-04-18 07:43 15.89318 86.74415 34891 ft 534 kts 135°
2026-04-18 07:43 15.84257 86.80065 34892 ft 534 kts 135°
2026-04-18 07:44 15.79192 86.85713 34884 ft 534 kts 135°
2026-04-18 07:44 15.74128 86.91358 34892 ft 534 kts 135°
2026-04-18 07:45 15.69059 86.97002 34887 ft 534 kts 135°
2026-04-18 07:45 15.64029 87.02600 34888 ft 534 kts 135°
2026-04-18 07:46 15.58961 87.08235 34890 ft 534 kts 134°
2026-04-18 07:46 15.53893 87.13866 34889 ft 534 kts 134°
2026-04-18 07:47 15.48825 87.19492 34892 ft 533 kts 134°
2026-04-18 07:47 15.43760 87.25111 34890 ft 533 kts 134°
2026-04-18 07:48 15.38731 87.30686 34886 ft 533 kts 134°
2026-04-18 07:48 15.33665 87.36299 34886 ft 533 kts 134°
2026-04-18 07:49 15.28597 87.41910 34886 ft 533 kts 134°
2026-04-18 07:49 15.23560 87.47558 34887 ft 534 kts 133°
2026-04-18 07:50 15.18620 87.53300 34890 ft 534 kts 133°
2026-04-18 07:50 15.13695 87.59054 34890 ft 534 kts 133°
2026-04-18 07:51 15.08748 87.64799 34891 ft 535 kts 133°
2026-04-18 07:51 15.03788 87.70533 34885 ft 535 kts 133°
2026-04-18 07:52 14.98822 87.76265 34887 ft 535 kts 133°
2026-04-18 07:52 14.93854 87.81997 34888 ft 535 kts 133°
2026-04-18 07:53 14.88890 87.87722 34893 ft 534 kts 133°
2026-04-18 07:53 14.83933 87.93436 34891 ft 534 kts 133°
2026-04-18 07:54 14.78979 87.99141 34889 ft 533 kts 133°
2026-04-18 07:54 14.74108 88.04747 34892 ft 532 kts 133°
2026-04-18 07:55 14.69161 88.10436 34889 ft 532 kts 133°
2026-04-18 07:55 14.64210 88.16125 34892 ft 532 kts 133°
2026-04-18 07:56 14.59260 88.21808 34886 ft 532 kts 133°
2026-04-18 07:56 14.54316 88.27481 34893 ft 531 kts 132°
2026-04-18 07:57 14.49378 88.33143 34886 ft 530 kts 132°
2026-04-18 07:57 14.44439 88.38803 34884 ft 530 kts 132°
2026-04-18 07:58 14.37047 88.47265 34885 ft 529 kts 132°
2026-04-18 07:59 14.32122 88.52897 34890 ft 529 kts 132°
2026-04-18 07:59 14.27193 88.58531 34887 ft 529 kts 132°
2026-04-18 08:00 14.22262 88.64163 34890 ft 529 kts 132°
2026-04-18 08:00 14.17335 88.69786 34897 ft 528 kts 132°
2026-04-18 08:01 14.12443 88.75366 34892 ft 528 kts 132°
2026-04-18 08:01 14.07523 88.80973 34892 ft 527 kts 132°
2026-04-18 08:02 14.02606 88.86573 34888 ft 527 kts 132°
2026-04-18 08:02 13.97689 88.92169 34889 ft 527 kts 132°
2026-04-18 08:03 13.92767 88.97768 34894 ft 527 kts 132°
2026-04-18 08:03 13.87889 89.03312 34891 ft 528 kts 132°
2026-04-18 08:04 13.82961 89.08909 34887 ft 528 kts 131°
2026-04-18 08:04 13.78028 89.14508 34890 ft 528 kts 131°
2026-04-18 08:05 13.73096 89.20103 34888 ft 528 kts 131°
2026-04-18 08:05 13.68164 89.25693 34886 ft 528 kts 131°
2026-04-18 08:06 13.63227 89.31285 34889 ft 528 kts 131°
2026-04-18 08:06 13.58285 89.36880 34888 ft 528 kts 131°
2026-04-18 08:07 13.53373 89.42436 34891 ft 529 kts 131°
2026-04-18 08:07 13.48394 89.48065 34887 ft 529 kts 131°
2026-04-18 08:08 13.43481 89.53616 34887 ft 529 kts 131°
2026-04-18 08:08 13.38529 89.59206 34885 ft 528 kts 131°
2026-04-18 08:09 13.33581 89.64789 34886 ft 528 kts 131°
2026-04-18 08:09 13.28628 89.70373 34885 ft 528 kts 131°
2026-04-18 08:10 13.23686 89.75942 34885 ft 528 kts 131°
2026-04-18 08:10 13.18735 89.81517 34885 ft 528 kts 131°
2026-04-18 08:11 13.13786 89.87086 34883 ft 528 kts 131°
2026-04-18 08:11 13.08839 89.92649 34883 ft 527 kts 131°
2026-04-18 08:12 13.03898 89.98202 34881 ft 526 kts 131°
2026-04-18 08:12 12.99037 90.03662 34880 ft 526 kts 131°
2026-04-18 08:13 12.94096 90.09208 34882 ft 526 kts 131°
2026-04-18 08:13 12.89165 90.14740 34882 ft 526 kts 131°
2026-04-18 08:14 12.84232 90.20270 34882 ft 526 kts 131°
2026-04-18 08:14 12.79331 90.25761 34883 ft 526 kts 131°
2026-04-18 08:15 12.74395 90.31287 34888 ft 525 kts 131°
2026-04-18 08:15 12.69463 90.36805 34883 ft 525 kts 131°
2026-04-18 08:16 12.64535 90.42317 34885 ft 525 kts 131°
2026-04-18 08:16 12.59602 90.47829 34881 ft 525 kts 131°
2026-04-18 08:17 12.54674 90.53333 34881 ft 524 kts 131°
2026-04-18 08:17 12.49742 90.58838 34879 ft 524 kts 131°
2026-04-18 08:18 12.44813 90.64337 34877 ft 524 kts 131°
2026-04-18 08:18 12.39881 90.69835 34878 ft 524 kts 131°
2026-04-18 08:19 12.34949 90.75330 34879 ft 524 kts 131°
2026-04-18 08:19 12.30015 90.80825 34876 ft 524 kts 131°
2026-04-18 08:20 12.25080 90.86317 34873 ft 524 kts 131°
2026-04-18 08:20 12.20138 90.91814 34874 ft 525 kts 131°
2026-04-18 08:21 12.16031 90.96378 34876 ft 525 kts 131°
2026-04-18 08:21 12.11141 91.01812 34873 ft 525 kts 131°
2026-04-18 08:22 12.06194 91.07304 34873 ft 525 kts 131°
2026-04-18 08:22 12.01247 91.12795 34874 ft 525 kts 131°
2026-04-18 08:23 11.96300 91.18282 34870 ft 526 kts 131°
2026-04-18 08:23 11.91346 91.23775 34872 ft 526 kts 131°
2026-04-18 08:24 11.86383 91.29271 34874 ft 526 kts 132°
2026-04-18 08:24 11.81207 91.34566 34873 ft 527 kts 135°
2026-04-18 08:25 11.75922 91.39755 34869 ft 527 kts 135°
2026-04-18 08:25 11.70643 91.44954 34870 ft 528 kts 135°
2026-04-18 08:26 11.65380 91.50174 34871 ft 528 kts 135°
2026-04-18 08:26 11.60121 91.55398 34866 ft 528 kts 135°
2026-04-18 08:27 11.54856 91.60623 34868 ft 528 kts 135°
2026-04-18 08:27 11.49585 91.65848 34865 ft 528 kts 135°
2026-04-18 08:28 11.44346 91.71038 34864 ft 528 kts 135°
2026-04-18 08:28 11.39075 91.76258 34863 ft 528 kts 135°
2026-04-18 08:29 11.33742 91.81414 34864 ft 529 kts 137°
2026-04-18 08:29 11.28184 91.86332 34863 ft 529 kts 139°
2026-04-18 08:30 11.22591 91.91196 34866 ft 529 kts 139°
2026-04-18 08:30 11.17011 91.96078 34863 ft 529 kts 139°
2026-04-18 08:31 11.11494 92.00933 34864 ft 529 kts 139°
2026-04-18 08:31 11.05927 92.05837 34859 ft 529 kts 139°
2026-04-18 08:32 11.00357 92.10741 34863 ft 529 kts 139°
2026-04-18 08:32 10.94790 92.15637 34862 ft 529 kts 139°
2026-04-18 08:33 10.89219 92.20532 34863 ft 529 kts 139°
2026-04-18 08:33 10.83644 92.25429 34863 ft 529 kts 139°
2026-04-18 08:34 10.78071 92.30322 34866 ft 529 kts 139°
2026-04-18 08:34 10.72495 92.35215 34863 ft 529 kts 139°
2026-04-18 08:35 10.66922 92.40103 34860 ft 529 kts 139°
2026-04-18 08:35 10.61344 92.44993 34858 ft 529 kts 139°
2026-04-18 08:36 10.55763 92.49883 34854 ft 529 kts 140°
2026-04-18 08:36 10.50189 92.54764 34857 ft 529 kts 140°
2026-04-18 08:37 10.44620 92.59639 34857 ft 528 kts 140°
2026-04-18 08:37 10.39052 92.64510 34857 ft 528 kts 140°
2026-04-18 08:38 10.33522 92.69346 34861 ft 528 kts 140°
2026-04-18 08:38 10.27958 92.74209 34861 ft 528 kts 140°
2026-04-18 08:39 10.22398 92.79067 34852 ft 527 kts 140°
2026-04-18 08:39 10.16830 92.83928 34854 ft 527 kts 140°
2026-04-18 08:40 10.11278 92.88774 34854 ft 526 kts 140°
2026-04-18 08:40 10.05729 92.93615 34854 ft 526 kts 140°
2026-04-18 08:41 10.00184 92.98450 34851 ft 526 kts 140°
2026-04-18 08:41 9.94724 93.03209 34852 ft 525 kts 140°
2026-04-18 08:42 9.89178 93.08041 34855 ft 525 kts 140°
2026-04-18 08:42 9.83632 93.12870 34851 ft 525 kts 140°
2026-04-18 08:43 9.78090 93.17693 34849 ft 525 kts 140°
2026-04-18 08:43 9.72545 93.22517 34852 ft 525 kts 140°
2026-04-18 08:44 9.66998 93.27341 34855 ft 525 kts 140°
2026-04-18 08:44 9.61457 93.32157 34852 ft 525 kts 140°
2026-04-18 08:45 9.55909 93.36977 34849 ft 525 kts 140°
2026-04-18 08:45 9.50391 93.41769 34855 ft 525 kts 140°
2026-04-18 08:46 9.44839 93.46588 34854 ft 525 kts 140°
2026-04-18 08:46 9.39290 93.51403 34845 ft 525 kts 140°
2026-04-18 08:47 9.33739 93.56217 34853 ft 525 kts 140°
2026-04-18 08:47 9.28186 93.61031 34852 ft 526 kts 140°
2026-04-18 08:48 9.22629 93.65846 34849 ft 526 kts 140°
2026-04-18 08:48 9.17070 93.70661 34846 ft 526 kts 140°
2026-04-18 08:49 9.11510 93.75475 34847 ft 526 kts 140°
2026-04-18 08:49 9.05953 93.80285 34850 ft 526 kts 140°
2026-04-18 08:50 9.00396 93.85092 34846 ft 525 kts 140°
2026-04-18 08:50 8.94847 93.89891 34845 ft 524 kts 140°
2026-04-18 08:51 8.89306 93.94682 34847 ft 524 kts 140°
2026-04-18 08:51 8.84030 93.99750 34848 ft 524 kts 131°
2026-04-18 08:52 8.79728 94.05564 34844 ft 523 kts 122°
2026-04-18 08:52 8.75919 94.11838 34850 ft 523 kts 121°
2026-04-18 08:53 8.72106 94.18112 34849 ft 524 kts 122°
2026-04-18 08:53 8.68251 94.24355 34849 ft 524 kts 122°
2026-04-18 08:54 8.64378 94.30598 34845 ft 524 kts 122°
2026-04-18 08:54 8.60538 94.36796 34845 ft 524 kts 122°
2026-04-18 08:55 8.56728 94.43074 34846 ft 524 kts 119°
2026-04-18 08:55 8.53308 94.49570 34848 ft 524 kts 117°
2026-04-18 08:56 8.49946 94.56109 34846 ft 524 kts 117°
2026-04-18 08:56 8.46568 94.62630 34847 ft 524 kts 118°
2026-04-18 08:57 8.41467 94.72390 34850 ft 524 kts 118°
2026-04-18 08:57 8.38061 94.78895 34843 ft 524 kts 118°
2026-04-18 08:58 8.34659 94.85392 34843 ft 524 kts 118°
2026-04-18 08:58 8.31255 94.91895 34841 ft 524 kts 118°
2026-04-18 08:59 8.27853 94.98390 34845 ft 523 kts 118°
2026-04-18 08:59 8.24491 95.04804 34843 ft 522 kts 118°
2026-04-18 09:00 8.21113 95.11247 34843 ft 522 kts 118°
2026-04-18 09:00 8.17714 95.17726 34845 ft 522 kts 118°
2026-04-18 09:01 8.14317 95.24198 34841 ft 522 kts 118°
2026-04-18 09:01 8.10918 95.30671 34840 ft 522 kts 118°
2026-04-18 09:02 8.07521 95.37139 34839 ft 522 kts 118°
2026-04-18 09:02 8.04121 95.43610 34842 ft 522 kts 118°
2026-04-18 09:03 8.00719 95.50081 34841 ft 522 kts 118°
2026-04-18 09:03 7.97312 95.56539 34841 ft 522 kts 119°
2026-04-18 09:04 7.93889 95.63008 34842 ft 523 kts 119°
2026-04-18 09:04 7.90463 95.69483 34841 ft 523 kts 119°
2026-04-18 09:05 7.87043 95.75949 34841 ft 523 kts 119°
2026-04-18 09:05 7.83640 95.82381 34842 ft 523 kts 119°
2026-04-18 09:06 7.80216 95.88850 34841 ft 523 kts 119°
2026-04-18 09:06 7.76786 95.95327 34838 ft 523 kts 119°
2026-04-18 09:07 7.73395 96.01727 34838 ft 523 kts 119°
2026-04-18 09:07 7.69966 96.08197 34839 ft 523 kts 119°
2026-04-18 09:08 7.67111 96.13581 34837 ft 524 kts 119°
2026-04-18 09:08 7.63675 96.20059 34839 ft 524 kts 119°
2026-04-18 09:09 7.60234 96.26541 34839 ft 524 kts 119°
2026-04-18 09:09 7.56794 96.33020 34839 ft 524 kts 119°
2026-04-18 09:10 7.53355 96.39495 34842 ft 524 kts 119°
2026-04-18 09:10 7.49914 96.45970 34967 ft 524 kts 119°
2026-04-18 09:11 7.48199 96.49197 35206 ft 521 kts 119°
2026-04-18 09:11 7.46492 96.52408 35454 ft 519 kts 119°
2026-04-18 09:11 7.44793 96.55602 35653 ft 517 kts 119°
2026-04-18 09:11 7.43095 96.58795 35841 ft 516 kts 119°
2026-04-18 09:12 7.41403 96.61976 36071 ft 514 kts 119°
2026-04-18 09:12 7.39718 96.65142 36342 ft 511 kts 119°
2026-04-18 09:12 7.38043 96.68289 36637 ft 508 kts 119°
2026-04-18 09:12 7.36373 96.71428 36785 ft 506 kts 119°
2026-04-18 09:13 7.33074 96.77623 36833 ft 497 kts 119°
2026-04-18 09:13 7.29819 96.83734 36835 ft 494 kts 119°
2026-04-18 09:14 7.27059 96.90067 36839 ft 495 kts 109°
2026-04-18 09:14 7.25319 96.96792 36847 ft 497 kts 104°
2026-04-18 09:15 7.23752 97.03447 36840 ft 499 kts 104°
2026-04-18 09:15 7.22116 97.10261 36842 ft 502 kts 104°
2026-04-18 09:16 7.20444 97.17093 36838 ft 503 kts 104°
2026-04-18 09:16 7.18759 97.23940 36835 ft 504 kts 104°
2026-04-18 09:17 7.17072 97.30794 36835 ft 504 kts 104°
2026-04-18 09:17 7.15387 97.37642 36836 ft 504 kts 104°
2026-04-18 09:18 7.13703 97.44487 36838 ft 503 kts 104°
2026-04-18 09:18 7.12023 97.51309 36837 ft 502 kts 104°
2026-04-18 09:19 7.10342 97.58129 36839 ft 501 kts 104°
2026-04-18 09:19 7.08663 97.64938 36830 ft 501 kts 104°
2026-04-18 09:20 7.06981 97.71753 36841 ft 502 kts 104°
2026-04-18 09:20 7.05297 97.78574 36830 ft 502 kts 104°
2026-04-18 09:21 7.03619 97.85365 36833 ft 503 kts 104°
2026-04-18 09:21 7.01928 97.92204 36834 ft 504 kts 104°
2026-04-18 09:22 7.00231 97.99040 36834 ft 504 kts 105°
2026-04-18 09:22 6.98031 98.05640 36837 ft 503 kts 111°
2026-04-18 09:23 6.95554 98.12225 36830 ft 503 kts 111°
2026-04-18 09:23 6.93081 98.18820 36831 ft 504 kts 111°
2026-04-18 09:24 6.90636 98.25429 36833 ft 504 kts 111°
2026-04-18 09:24 6.88205 98.32037 36833 ft 504 kts 111°
2026-04-18 09:25 6.85769 98.38657 36830 ft 504 kts 111°
2026-04-18 09:25 6.83335 98.45262 36830 ft 504 kts 111°
2026-04-18 09:26 6.80896 98.51877 36830 ft 504 kts 111°
2026-04-18 09:26 6.78456 98.58488 36830 ft 504 kts 111°
2026-04-18 09:27 6.76017 98.65097 36825 ft 504 kts 111°
2026-04-18 09:27 6.73573 98.71715 36828 ft 504 kts 111°
2026-04-18 09:28 6.71129 98.78328 36827 ft 504 kts 111°
2026-04-18 09:28 6.68685 98.84940 36828 ft 504 kts 111°
2026-04-18 09:29 6.66239 98.91555 36828 ft 505 kts 111°
2026-04-18 09:29 6.63791 98.98173 36827 ft 505 kts 111°
2026-04-18 09:30 6.61375 99.04701 36831 ft 505 kts 111°
2026-04-18 09:30 6.58924 99.11320 36831 ft 505 kts 111°
2026-04-18 09:31 6.56474 99.17932 36831 ft 505 kts 111°
2026-04-18 09:31 6.54035 99.24515 36828 ft 505 kts 111°
2026-04-18 09:32 6.51582 99.31133 36834 ft 505 kts 111°
2026-04-18 09:32 6.49125 99.37749 36828 ft 505 kts 111°
2026-04-18 09:33 6.46657 99.44362 36821 ft 505 kts 111°
2026-04-18 09:33 6.44187 99.50972 36818 ft 505 kts 111°
2026-04-18 09:34 6.41716 99.57590 36809 ft 505 kts 111°
2026-04-18 09:34 6.39245 99.64208 36805 ft 506 kts 111°
2026-04-18 09:35 6.36674 99.70783 36801 ft 505 kts 117°
2026-04-18 09:35 6.32620 99.76500 36821 ft 503 kts 135°
2026-04-18 09:36 6.27246 99.80951 36824 ft 501 kts 144°
2026-04-18 09:36 6.21635 99.85116 36817 ft 502 kts 144°
2026-04-18 09:37 6.16054 99.89347 36814 ft 503 kts 143°
2026-04-18 09:37 6.10499 99.93620 36820 ft 503 kts 143°
2026-04-18 09:38 6.04938 99.97897 36817 ft 503 kts 143°
2026-04-18 09:38 5.99447 100.02094 36822 ft 503 kts 143°
2026-04-18 09:39 5.93845 100.06316 36823 ft 503 kts 144°
2026-04-18 09:39 5.88257 100.10533 36821 ft 502 kts 144°
2026-04-18 09:40 5.82683 100.14752 36816 ft 501 kts 143°
2026-04-18 09:40 5.77117 100.18968 36816 ft 501 kts 144°
2026-04-18 09:41 5.71555 100.23179 36818 ft 501 kts 143°
2026-04-18 09:41 5.66026 100.27365 36807 ft 501 kts 144°
2026-04-18 09:42 5.60460 100.31576 36810 ft 500 kts 144°
2026-04-18 09:42 5.54901 100.35783 36802 ft 500 kts 144°
2026-04-18 09:43 5.49345 100.39985 36803 ft 500 kts 144°
2026-04-18 09:43 5.43791 100.44184 36803 ft 500 kts 144°
2026-04-18 09:44 5.38235 100.48384 36806 ft 500 kts 144°
2026-04-18 09:44 5.32679 100.52583 36812 ft 500 kts 144°
2026-04-18 09:45 5.27119 100.56785 36820 ft 501 kts 144°
2026-04-18 09:45 5.21554 100.60990 36850 ft 501 kts 144°
2026-04-18 09:46 5.15984 100.65196 36859 ft 501 kts 144°
2026-04-18 09:46 5.10412 100.69404 36860 ft 501 kts 144°
2026-04-18 09:47 5.04840 100.73611 36858 ft 501 kts 144°
2026-04-18 09:47 4.99282 100.77808 36860 ft 501 kts 144°
2026-04-18 09:48 4.93709 100.82014 36860 ft 501 kts 144°
2026-04-18 09:48 4.88135 100.86218 36864 ft 501 kts 144°
2026-04-18 09:49 4.82559 100.90424 36863 ft 501 kts 144°
2026-04-18 09:49 4.76983 100.94630 36841 ft 501 kts 143°
2026-04-18 09:50 4.71410 100.98835 36828 ft 501 kts 143°
2026-04-18 09:50 4.65927 101.02970 36809 ft 501 kts 143°
2026-04-18 09:51 4.60306 101.07102 36800 ft 501 kts 148°
2026-04-18 09:51 4.54125 101.10272 36811 ft 499 kts 159°
2026-04-18 09:52 4.47518 101.12392 36814 ft 498 kts 165°
2026-04-18 09:52 4.40845 101.14262 36828 ft 498 kts 165°
2026-04-18 09:53 4.34174 101.16159 36842 ft 498 kts 164°
2026-04-18 09:53 4.27527 101.18086 36852 ft 497 kts 164°
2026-04-18 09:54 4.21997 101.19699 36860 ft 497 kts 164°
2026-04-18 09:54 4.15345 101.21637 36854 ft 497 kts 164°
2026-04-18 09:55 4.08700 101.23570 36858 ft 497 kts 164°
2026-04-18 09:55 4.02046 101.25505 36847 ft 497 kts 164°
2026-04-18 09:56 3.95411 101.27435 36846 ft 498 kts 164°
2026-04-18 09:56 3.88800 101.29357 36847 ft 498 kts 164°
2026-04-18 09:57 3.82141 101.31293 36842 ft 499 kts 165°
2026-04-18 09:57 3.75465 101.33255 36854 ft 500 kts 164°
2026-04-18 09:58 3.68788 101.35257 36847 ft 501 kts 163°
2026-04-18 09:58 3.62098 101.37263 36847 ft 502 kts 163°
2026-04-18 09:59 3.55397 101.39265 36844 ft 503 kts 163°
2026-04-18 10:00 3.45340 101.42267 36835 ft 503 kts 163°
2026-04-18 10:00 3.38637 101.44268 36821 ft 502 kts 163°
2026-04-18 10:01 3.31967 101.46348 36824 ft 502 kts 160°
2026-04-18 10:01 3.25591 101.49179 36815 ft 502 kts 155°
2026-04-18 10:02 3.19277 101.52161 36801 ft 501 kts 155°
2026-04-18 10:02 3.12955 101.55111 36800 ft 501 kts 155°
2026-04-18 10:03 3.06621 101.58034 36805 ft 501 kts 156°
2026-04-18 10:03 3.00295 101.60946 36808 ft 501 kts 156°
2026-04-18 10:04 2.93973 101.63858 36808 ft 501 kts 155°
2026-04-18 10:04 2.87635 101.66778 36818 ft 502 kts 155°
2026-04-18 10:05 2.81289 101.69702 36811 ft 503 kts 156°
2026-04-18 10:05 2.74935 101.72631 36803 ft 503 kts 156°
2026-04-18 10:06 2.68587 101.75615 36804 ft 504 kts 155°
2026-04-18 10:06 2.62294 101.78715 36804 ft 504 kts 154°
2026-04-18 10:07 2.56140 101.81989 36802 ft 505 kts 146°
2026-04-18 10:07 2.50854 101.86588 36815 ft 506 kts 132°
2026-04-18 10:08 2.46557 101.92163 36813 ft 506 kts 127°
2026-04-18 10:08 2.42397 101.97851 36821 ft 507 kts 127°
2026-04-18 10:09 2.38245 102.03444 36818 ft 507 kts 127°
2026-04-18 10:09 2.34012 102.09077 36822 ft 507 kts 128°
2026-04-18 10:10 2.29773 102.14702 36825 ft 506 kts 127°
2026-04-18 10:10 2.25536 102.20327 36802 ft 506 kts 127°
2026-04-18 10:11 2.21303 102.25951 36804 ft 506 kts 127°
2026-04-18 10:11 2.17077 102.31567 36804 ft 505 kts 127°
2026-04-18 10:12 2.12851 102.37181 36813 ft 505 kts 127°
2026-04-18 10:12 2.08628 102.42792 36817 ft 505 kts 127°
2026-04-18 10:13 2.04399 102.48410 36827 ft 506 kts 128°
2026-04-18 10:13 2.00162 102.54037 36826 ft 506 kts 128°
2026-04-18 10:14 1.95935 102.59651 36827 ft 507 kts 128°
2026-04-18 10:14 1.91694 102.65287 36823 ft 507 kts 127°
2026-04-18 10:15 1.87453 102.70923 36823 ft 507 kts 127°
2026-04-18 10:15 1.83210 102.76562 36825 ft 507 kts 127°
2026-04-18 10:16 1.78965 102.82203 36822 ft 507 kts 128°
2026-04-18 10:16 1.74728 102.87845 36818 ft 507 kts 126°
2026-04-18 10:17 1.71080 102.93875 36823 ft 508 kts 118°
2026-04-18 10:17 1.67866 103.00076 36817 ft 508 kts 118°
2026-04-18 10:18 1.64577 103.06265 36821 ft 508 kts 119°
2026-04-18 10:18 1.60471 103.11961 36820 ft 506 kts 134°
2026-04-18 10:19 1.55062 103.16424 36820 ft 504 kts 147°
2026-04-18 10:19 1.49144 103.20206 36806 ft 506 kts 148°
2026-04-18 10:20 1.43220 103.24008 36815 ft 506 kts 147°
2026-04-18 10:20 1.37323 103.27875 36811 ft 507 kts 147°
2026-04-18 10:21 1.31438 103.31753 36827 ft 508 kts 147°
2026-04-18 10:21 1.25525 103.35640 36814 ft 508 kts 147°
2026-04-18 10:22 1.19638 103.39543 36820 ft 508 kts 147°
2026-04-18 10:22 1.13757 103.43455 36825 ft 508 kts 147°
2026-04-18 10:23 1.07868 103.47364 36829 ft 507 kts 147°
2026-04-18 10:23 1.02297 103.51657 36820 ft 507 kts 137°
2026-04-18 10:24 0.97388 103.56709 36826 ft 507 kts 134°
2026-04-18 10:24 0.92532 103.61823 36826 ft 508 kts 134°
2026-04-18 10:25 0.87670 103.66884 36831 ft 508 kts 135°
2026-04-18 10:25 0.82753 103.71965 36834 ft 508 kts 135°
2026-04-18 10:26 0.77829 103.77049 36835 ft 509 kts 135°
2026-04-18 10:26 0.72909 103.82132 36845 ft 509 kts 134°
2026-04-18 10:27 0.67992 103.87213 36836 ft 508 kts 135°
2026-04-18 10:27 0.63078 103.92293 36837 ft 508 kts 135°
2026-04-18 10:28 0.58169 103.97366 36842 ft 508 kts 135°
2026-04-18 10:28 0.53311 104.02382 36840 ft 508 kts 135°
2026-04-18 10:29 0.48397 104.07447 36841 ft 508 kts 135°
2026-04-18 10:29 0.43486 104.12513 36841 ft 508 kts 135°
2026-04-18 10:30 0.38575 104.17578 36838 ft 507 kts 135°
2026-04-18 10:30 0.33189 104.22099 36855 ft 506 kts 147°
2026-04-18 10:31 0.27008 104.25443 36849 ft 506 kts 157°
2026-04-18 10:31 0.20516 104.28170 36849 ft 507 kts 158°
2026-04-18 10:32 0.14002 104.30888 36848 ft 508 kts 158°
2026-04-18 10:32 0.07529 104.33641 36846 ft 509 kts 158°
2026-04-18 10:33 0.01014 104.36438 36852 ft 510 kts 157°
2026-04-18 10:33 -0.05496 104.39235 36849 ft 510 kts 157°
2026-04-18 10:34 -0.12016 104.42033 36850 ft 510 kts 157°
2026-04-18 10:34 -0.18542 104.44833 36850 ft 510 kts 157°
2026-04-18 10:35 -0.25071 104.47633 36855 ft 510 kts 157°
2026-04-18 10:35 -0.31601 104.50434 36850 ft 510 kts 157°
2026-04-18 10:36 -0.38124 104.53233 36852 ft 510 kts 157°
2026-04-18 10:36 -0.44641 104.56029 36852 ft 509 kts 157°
2026-04-18 10:37 -0.51167 104.58795 36848 ft 509 kts 158°
2026-04-18 10:37 -0.57744 104.61412 36853 ft 509 kts 159°
2026-04-18 10:38 -0.64335 104.63994 36852 ft 508 kts 159°
2026-04-18 10:38 -0.70912 104.66591 36852 ft 508 kts 159°
2026-04-18 10:39 -0.77485 104.69205 36854 ft 508 kts 159°
2026-04-18 10:39 -0.84005 104.71803 36852 ft 507 kts 159°
2026-04-18 10:40 -0.90565 104.74415 36852 ft 507 kts 159°
2026-04-18 10:40 -0.97124 104.77026 36852 ft 507 kts 159°
2026-04-18 10:41 -1.02553 104.79187 36852 ft 507 kts 159°
2026-04-18 10:41 -1.09100 104.81793 36852 ft 506 kts 159°
2026-04-18 10:42 -1.15646 104.84399 36855 ft 506 kts 159°
2026-04-18 10:42 -1.22189 104.87003 36848 ft 506 kts 159°
2026-04-18 10:43 -1.28722 104.89604 36851 ft 506 kts 159°
2026-04-18 10:43 -1.35263 104.92208 36852 ft 505 kts 159°
2026-04-18 10:44 -1.41801 104.94811 36841 ft 506 kts 159°
2026-04-18 10:44 -1.48343 104.97416 36854 ft 507 kts 159°
2026-04-18 10:45 -1.54883 105.00020 36851 ft 507 kts 159°
2026-04-18 10:45 -1.61384 105.02609 36850 ft 507 kts 159°
2026-04-18 10:46 -1.67948 105.05223 36851 ft 508 kts 159°
2026-04-18 10:46 -1.74511 105.07837 36847 ft 508 kts 159°
2026-04-18 10:47 -1.81074 105.10452 36848 ft 508 kts 159°
2026-04-18 10:47 -1.87637 105.13066 36849 ft 508 kts 159°
2026-04-18 10:48 -1.94152 105.15661 36848 ft 507 kts 159°
2026-04-18 10:48 -2.00695 105.18268 36850 ft 507 kts 159°
2026-04-18 10:49 -2.07243 105.20877 36847 ft 506 kts 159°
2026-04-18 10:49 -2.13791 105.23486 36850 ft 506 kts 159°
2026-04-18 10:50 -2.20333 105.26093 36848 ft 506 kts 159°
2026-04-18 10:50 -2.26871 105.28699 36850 ft 506 kts 159°
2026-04-18 10:51 -2.33409 105.31306 36847 ft 506 kts 159°
2026-04-18 10:51 -2.39955 105.33915 36852 ft 506 kts 159°
2026-04-18 10:52 -2.46492 105.36523 36853 ft 507 kts 159°
2026-04-18 10:52 -2.53064 105.39146 36856 ft 507 kts 159°
2026-04-18 10:53 -2.59586 105.41871 36845 ft 508 kts 157°
2026-04-18 10:53 -2.66088 105.44654 36855 ft 508 kts 157°
2026-04-18 10:54 -2.72602 105.47433 36859 ft 509 kts 157°
2026-04-18 10:54 -2.79118 105.50197 36863 ft 509 kts 157°
2026-04-18 10:55 -2.85645 105.52959 36865 ft 509 kts 157°
2026-04-18 10:55 -2.92136 105.55707 36868 ft 509 kts 157°
2026-04-18 10:56 -2.98665 105.58473 36869 ft 510 kts 157°
2026-04-18 10:56 -3.05187 105.61236 36864 ft 510 kts 157°
2026-04-18 10:57 -3.11717 105.64003 36868 ft 510 kts 157°
2026-04-18 10:57 -3.18247 105.66771 36866 ft 509 kts 157°
2026-04-18 10:58 -3.24767 105.69535 36865 ft 508 kts 158°
2026-04-18 10:58 -3.31279 105.72296 36858 ft 508 kts 157°
2026-04-18 10:59 -3.37785 105.75054 36863 ft 508 kts 157°
2026-04-18 10:59 -3.44287 105.77811 36862 ft 507 kts 158°
2026-04-18 11:00 -3.50787 105.80568 36862 ft 507 kts 157°
2026-04-18 11:00 -3.57288 105.83326 36868 ft 507 kts 157°
2026-04-18 11:01 -3.63794 105.86086 36868 ft 508 kts 157°
2026-04-18 11:01 -3.70250 105.88826 36869 ft 507 kts 157°
2026-04-18 11:02 -3.80306 105.91981 36866 ft 506 kts 170°
2026-04-18 11:02 -3.87246 105.93144 36864 ft 505 kts 171°
2026-04-18 11:03 -3.94183 105.94304 36854 ft 506 kts 170°
2026-04-18 11:03 -4.01104 105.95502 36861 ft 506 kts 170°
2026-04-18 11:04 -4.08042 105.96722 36856 ft 506 kts 170°
2026-04-18 11:04 -4.14970 105.97944 36860 ft 505 kts 169°
2026-04-18 11:05 -4.21893 105.99163 36854 ft 505 kts 170°
2026-04-18 11:05 -4.28742 106.00368 36864 ft 504 kts 170°
2026-04-18 11:06 -4.35658 106.01584 36855 ft 505 kts 170°
2026-04-18 11:06 -4.42576 106.02801 36860 ft 504 kts 170°
2026-04-18 11:07 -4.49397 106.04001 36751 ft 494 kts 170°
2026-04-18 11:07 -4.52836 106.04606 35966 ft 495 kts 169°
2026-04-18 11:07 -4.56223 106.05202 35163 ft 495 kts 169°
2026-04-18 11:08 -4.59621 106.05800 34279 ft 497 kts 169°
2026-04-18 11:08 -4.63032 106.06401 33278 ft 499 kts 169°
2026-04-18 11:08 -4.66464 106.07006 32285 ft 501 kts 169°
2026-04-18 11:08 -4.69899 106.07611 31298 ft 502 kts 169°
2026-04-18 11:09 -4.73349 106.08219 30349 ft 503 kts 169°
2026-04-18 11:09 -4.76776 106.08822 29620 ft 498 kts 169°
2026-04-18 11:09 -4.80138 106.09413 28851 ft 494 kts 169°
2026-04-18 11:09 -4.83504 106.10006 28153 ft 489 kts 168°
2026-04-18 11:10 -4.86835 106.10592 27493 ft 483 kts 168°
2026-04-18 11:10 -4.90132 106.11173 26839 ft 479 kts 168°
2026-04-18 11:10 -4.93399 106.11748 26193 ft 474 kts 168°
2026-04-18 11:10 -4.96636 106.12319 25545 ft 470 kts 168°
2026-04-18 11:11 -4.99850 106.12885 24891 ft 467 kts 168°
2026-04-18 11:11 -5.03028 106.13445 24234 ft 464 kts 168°
2026-04-18 11:11 -5.06200 106.14005 23608 ft 461 kts 168°
2026-04-18 11:11 -5.09349 106.14560 22885 ft 458 kts 168°
2026-04-18 11:12 -5.12479 106.15112 22204 ft 454 kts 168°
2026-04-18 11:12 -5.15577 106.15658 21570 ft 449 kts 168°
2026-04-18 11:12 -5.18642 106.16198 20949 ft 445 kts 168°
2026-04-18 11:12 -5.21680 106.16734 20344 ft 441 kts 168°
2026-04-18 11:13 -5.24690 106.17265 19729 ft 438 kts 168°
2026-04-18 11:13 -5.27643 106.17786 19129 ft 435 kts 168°
2026-04-18 11:13 -5.30617 106.18311 18520 ft 433 kts 168°
2026-04-18 11:13 -5.33572 106.18832 17874 ft 430 kts 168°
2026-04-18 11:14 -5.36510 106.19351 17224 ft 427 kts 168°
2026-04-18 11:14 -5.39425 106.19866 16645 ft 423 kts 168°
2026-04-18 11:14 -5.42306 106.20374 16049 ft 420 kts 168°
2026-04-18 11:14 -5.45167 106.20879 15462 ft 416 kts 168°
2026-04-18 11:15 -5.48005 106.21380 14930 ft 412 kts 168°
2026-04-18 11:15 -5.50823 106.21878 14403 ft 409 kts 168°
2026-04-18 11:15 -5.53605 106.22369 13997 ft 402 kts 168°
2026-04-18 11:15 -5.56336 106.22850 13502 ft 397 kts 168°
2026-04-18 11:16 -5.59040 106.23328 12976 ft 392 kts 168°
2026-04-18 11:16 -5.61702 106.23798 12570 ft 385 kts 168°
2026-04-18 11:16 -5.64318 106.24259 12118 ft 379 kts 168°
2026-04-18 11:16 -5.66906 106.24717 11600 ft 376 kts 168°
2026-04-18 11:17 -5.69440 106.25164 11466 ft 362 kts 168°
2026-04-18 11:17 -5.71877 106.25594 11382 ft 349 kts 168°
2026-04-18 11:17 -5.74220 106.26007 11302 ft 335 kts 168°
2026-04-18 11:17 -5.76440 106.26398 11145 ft 313 kts 168°
2026-04-18 11:18 -5.78517 106.26764 10918 ft 295 kts 168°
2026-04-18 11:18 -5.80516 106.27118 10638 ft 289 kts 168°
2026-04-18 11:18 -5.82483 106.27467 10394 ft 285 kts 168°
2026-04-18 11:18 -5.84437 106.27799 10085 ft 284 kts 169°
2026-04-18 11:19 -5.86393 106.28119 9692 ft 287 kts 169°
2026-04-18 11:19 -5.88369 106.28439 9289 ft 288 kts 169°
2026-04-18 11:19 -5.90335 106.28753 9030 ft 284 kts 169°
2026-04-18 11:19 -5.92270 106.29054 8781 ft 279 kts 169°
2026-04-18 11:20 -5.94175 106.29360 8505 ft 276 kts 168°
2026-04-18 11:20 -5.96057 106.29687 8219 ft 273 kts 168°
2026-04-18 11:20 -5.97913 106.30035 7941 ft 271 kts 167°
2026-04-18 11:20 -5.99771 106.30406 7592 ft 273 kts 166°
2026-04-18 11:21 -6.01624 106.30795 7325 ft 271 kts 166°
2026-04-18 11:21 -6.03453 106.31205 7111 ft 266 kts 166°
2026-04-18 11:21 -6.05257 106.31603 6831 ft 265 kts 166°
2026-04-18 11:21 -6.07068 106.31959 6520 ft 265 kts 167°
2026-04-18 11:22 -6.08843 106.32299 6313 ft 252 kts 167°
2026-04-18 11:22 -6.10561 106.32598 5878 ft 253 kts 169°
2026-04-18 11:22 -6.12307 106.32848 5625 ft 250 kts 171°
2026-04-18 11:22 -6.14008 106.33049 5407 ft 246 kts 172°
2026-04-18 11:23 -6.15719 106.33247 5096 ft 245 kts 170°
2026-04-18 11:23 -6.17362 106.33514 4921 ft 239 kts 168°
2026-04-18 11:23 -6.18986 106.33825 4670 ft 236 kts 166°
2026-04-18 11:23 -6.20524 106.34343 4288 ft 235 kts 149°
2026-04-18 11:24 -6.21741 106.35415 3982 ft 227 kts 125°
2026-04-18 11:24 -6.22564 106.36686 3898 ft 211 kts 120°
2026-04-18 11:24 -6.23264 106.37953 3671 ft 208 kts 116°
2026-04-18 11:24 -6.23793 106.39292 3473 ft 199 kts 98°
2026-04-18 11:25 -6.23733 106.40671 3409 ft 202 kts 76°
2026-04-18 11:25 -6.23230 106.42013 3426 ft 206 kts 64°
2026-04-18 11:25 -6.22665 106.43340 3417 ft 208 kts 68°
2026-04-18 11:25 -6.22147 106.44685 3303 ft 204 kts 68°
2026-04-18 11:26 -6.21647 106.46002 3090 ft 195 kts 68°
2026-04-18 11:26 -6.21166 106.47218 2999 ft 177 kts 67°
2026-04-18 11:26 -6.20713 106.48346 2985 ft 171 kts 67°
2026-04-18 11:26 -6.20280 106.49437 2800 ft 164 kts 65°
2026-04-18 11:27 -6.19843 106.50446 2626 ft 156 kts 66°
2026-04-18 11:27 -6.19428 106.51441 2555 ft 157 kts 68°
2026-04-18 11:27 -6.19036 106.52498 2309 ft 162 kts 69°
2026-04-18 11:27 -6.18767 106.53215 2107 ft 162 kts 68°
2026-04-18 11:28 -6.18224 106.54547 1773 ft 151 kts 67°
2026-04-18 11:28 -6.17852 106.55502 1552 ft 138 kts 67°
2026-04-18 11:28 -6.17481 106.56419 1370 ft 143 kts 64°
2026-04-18 11:28 -6.17196 106.57022 1342 ft 142 kts 64°
2026-04-18 11:29 -6.16839 106.57952 1229 ft 142 kts 68°
2026-04-18 11:29 -6.16457 106.58885 1075 ft 147 kts 66°
2026-04-18 11:29 -6.16067 106.59847 943 ft 154 kts 66°
2026-04-18 11:29 -6.15670 106.60847 766 ft 154 kts 68°
2026-04-18 11:30 -6.15283 106.61869 632 ft 155 kts 67°
2026-04-18 11:30 -6.14849 106.62869 400 ft 157 kts 66°
2026-04-18 11:30 -6.14458 106.63867 183 ft 149 kts 66°
2026-04-18 11:30 -6.14091 106.64777 61 ft 136 kts 67°
2026-04-18 11:31 -6.13769 106.65586 44 ft 105 kts 69°
2026-04-18 11:31 -6.13564 106.66094 44 ft 52 kts 65°
2026-04-18 11:31 -6.13417 106.66269 45 ft 22 kts 37°
2026-04-18 11:31 -6.13364 106.66300 45 ft 1 kts 11°
2026-04-18 11:32 -6.13355 106.66300 45 ft 2 kts
2026-04-18 11:32 -6.13335 106.66299 44 ft 4 kts 355°
2026-04-18 11:32 -6.13307 106.66304 44 ft 4 kts 25°
2026-04-18 11:32 -6.13284 106.66327 44 ft 5 kts 53°
2026-04-18 11:33 -6.13267 106.66356 44 ft 5 kts 63°
2026-04-18 11:33 -6.13253 106.66388 44 ft 5 kts 66°
2026-04-18 11:33 -6.13239 106.66420 44 ft 5 kts 67°
2026-04-18 11:33 -6.13223 106.66456 44 ft 6 kts 66°
2026-04-18 11:34 -6.13207 106.66496 44 ft 6 kts 70°
2026-04-18 11:34 -6.13191 106.66539 44 ft 7 kts 68°
2026-04-18 11:34 -6.13173 106.66583 44 ft 7 kts 68°
2026-04-18 11:34 -6.13152 106.66646 44 ft 13 kts 73°
2026-04-18 11:35 -6.13112 106.66750 44 ft 19 kts 66°
2026-04-18 11:35 -6.13050 106.66893 44 ft 25 kts 69°
2026-04-18 11:35 -6.12978 106.67073 44 ft 30 kts 69°
2026-04-18 11:35 -6.12903 106.67266 43 ft 30 kts 67°
2026-04-18 11:36 -6.12828 106.67458 44 ft 30 kts 58°
2026-04-18 11:36 -6.12722 106.67635 43 ft 30 kts 58°
2026-04-18 11:36 -6.12596 106.67797 43 ft 30 kts 36°
2026-04-18 11:36 -6.12406 106.67866 43 ft 30 kts 358°
2026-04-18 11:37 -6.12209 106.67809 48 ft 30 kts 339°
2026-04-18 11:37 -6.12019 106.67729 50 ft 30 kts 335°
2026-04-18 11:37 -6.11825 106.67662 61 ft 30 kts 346°
2026-04-18 11:37 -6.11631 106.67583 47 ft 35 kts 338°
2026-04-18 11:38 -6.11394 106.67491 43 ft 36 kts 338°
2026-04-18 11:38 -6.11172 106.67398 43 ft 32 kts 337°
2026-04-18 11:38 -6.11097 106.67339 43 ft 13 kts 302°
2026-04-18 11:38 -6.11091 106.67253 43 ft 13 kts 258°
2026-04-18 11:39 -6.11112 106.67164 43 ft 13 kts 257°
2026-04-18 11:39 -6.11131 106.67076 43 ft 13 kts 257°
2026-04-18 11:39 -6.11155 106.66988 43 ft 13 kts 252°
2026-04-18 11:39 -6.11188 106.66904 43 ft 13 kts 243°
2026-04-18 11:40 -6.11271 106.66892 43 ft 13 kts 159°
2026-04-18 11:40 -6.11357 106.66927 43 ft 13 kts 160°
2026-04-18 11:40 -6.11444 106.66932 43 ft 13 kts 218°
2026-04-18 11:40 -6.11484 106.66873 43 ft 3 kts 217°
2026-04-18 11:41 -6.11505 106.66874 43 ft 3 kts 169°
2026-04-18 11:41 -6.11530 106.66882 43 ft 4 kts 160°
2026-04-18 11:41 -6.11559 106.66894 43 ft 3 kts 159°
2026-04-18 11:41 -6.11567 106.66897 43 ft 0 kts 159°
2026-04-18 11:42 -6.11571 106.66899 36 ft 1 kts 159°
2026-04-18 11:42 -6.11576 106.66900 34 ft 0 kts 159°